Observation data for Stinnett on 11/16/2019      Previous  Date       Current Mesonet Observations  Soil Data  Daily Summary Page  Observations in Plain Language
KST3 160600Z 21012KT 06/M03 A3012 RMK A01 T00631026  RH  053%=      5-min Rain = 0
KST3 160601Z 21012KT 06/M03 A3012 RMK A01 T00631026  RH  053%=      5-min Rain = 0
KST3 160602Z 21011KT 06/M03 A3012 RMK A01 T00631026  RH  053%=      5-min Rain = 0
KST3 160603Z 21012KT 06/M03 A3011 RMK A01 T00641026  RH  053%=      5-min Rain = 0
KST3 160604Z 21012KT 06/M03 A3011 RMK A01 T00641026  RH  053%=      5-min Rain = 0
KST3 160605Z 21012KT 06/M03 A3011 RMK A01 T00641026  RH  053%=      5-min Rain = 0
KST3 160606Z 21012KT 06/M03 A3011 RMK A01 T00641026  RH  053%=      5-min Rain = 0
KST3 160607Z 21011KT 06/M03 A3011 RMK A01 T00641026  RH  053%=      5-min Rain = 0
KST3 160608Z 21012KT 06/M03 A3011 RMK A01 T00641026  RH  052%=      5-min Rain = 0
KST3 160609Z 20012KT 07/M03 A3011 RMK A01 T00651026  RH  052%=      5-min Rain = 0
KST3 160610Z 21013KT 07/M03 A3011 RMK A01 T00661026  RH  052%=      5-min Rain = 0
KST3 160611Z 21013KT 07/M03 A3011 RMK A01 T00671026  RH  052%=      5-min Rain = 0
KST3 160612Z 21014KT 07/M03 A3011 RMK A01 T00681025  RH  051%=      5-min Rain = 0
KST3 160613Z 21013KT 07/M03 A3011 RMK A01 T00691025  RH  051%=      5-min Rain = 0
KST3 160614Z 21014KT 07/M03 A3011 RMK A01 T00691026  RH  051%=      5-min Rain = 0
KST3 160615Z 20014KT 07/M03 A3011 RMK A01 T00691026  RH  051%=      5-min Rain = 0
KST3 160616Z 21013KT 07/M03 A3011 RMK A01 T00701025  RH  051%=      5-min Rain = 0
KST3 160617Z 21013KT 07/M03 A3011 RMK A01 T00701026  RH  050%=      5-min Rain = 0
KST3 160618Z 20012KT 07/M03 A3011 RMK A01 T00701025  RH  050%=      5-min Rain = 0
KST3 160619Z 20013KT 07/M03 A3011 RMK A01 T00701026  RH  051%=      5-min Rain = 0
KST3 160620Z 20014KT 07/M03 A3011 RMK A01 T00701026  RH  051%=      5-min Rain = 0
KST3 160621Z 21014KT 07/M03 A3011 RMK A01 T00711025  RH  050%=      5-min Rain = 0
KST3 160622Z 20013KT 07/M03 A3011 RMK A01 T00711025  RH  050%=      5-min Rain = 0
KST3 160623Z 20012KT 07/M03 A3011 RMK A01 T00721025  RH  050%=      5-min Rain = 0
KST3 160624Z 20012KT 07/M03 A3011 RMK A01 T00711026  RH  050%=      5-min Rain = 0
KST3 160625Z 20013KT 07/M03 A3011 RMK A01 T00711025  RH  051%=      5-min Rain = 0
KST3 160626Z 20013KT 07/M03 A3011 RMK A01 T00701025  RH  051%=      5-min Rain = 0
KST3 160627Z 20013KT 07/M03 A3011 RMK A01 T00701025  RH  051%=      5-min Rain = 0
KST3 160628Z 21014KT 07/M03 A3011 RMK A01 T00701025  RH  051%=      5-min Rain = 0
KST3 160629Z 20013KT 07/M03 A3011 RMK A01 T00711025  RH  050%=      5-min Rain = 0
KST3 160630Z 21013KT 07/M03 A3011 RMK A01 T00711025  RH  050%=      5-min Rain = 0
KST3 160631Z 20013KT 07/M03 A3011 RMK A01 T00711025  RH  050%=      5-min Rain = 0
KST3 160632Z 20012KT 07/M03 A3011 RMK A01 T00711025  RH  051%=      5-min Rain = 0
KST3 160633Z 20012KT 07/M03 A3011 RMK A01 T00691026  RH  051%=      5-min Rain = 0
KST3 160634Z 20013KT 07/M03 A3011 RMK A01 T00691026  RH  051%=      5-min Rain = 0
KST3 160635Z 20013KT 07/M03 A301 RMK A01 T00691025  RH  051%=      5-min Rain = 0
KST3 160636Z 20013KT 07/M03 A301 RMK A01 T00681025  RH  051%=      5-min Rain = 0
KST3 160637Z 20013KT 07/M03 A301 RMK A01 T00691025  RH  051%=      5-min Rain = 0
KST3 160638Z 20013KT 07/M03 A301 RMK A01 T00691025  RH  051%=      5-min Rain = 0
KST3 160639Z 20013KT 07/M03 A301 RMK A01 T00691025  RH  051%=      5-min Rain = 0
KST3 160640Z 20014KT 07/M03 A301 RMK A01 T00681025  RH  051%=      5-min Rain = 0
KST3 160641Z 20013KT 07/M03 A301 RMK A01 T00681025  RH  051%=      5-min Rain = 0
KST3 160642Z 20013KT 07/M03 A301 RMK A01 T00681025  RH  052%=      5-min Rain = 0
KST3 160643Z 20013KT 07/M03 A301 RMK A01 T00671025  RH  052%=      5-min Rain = 0
KST3 160644Z 20013KT 07/M03 A301 RMK A01 T00671025  RH  052%=      5-min Rain = 0
KST3 160645Z 20013KT 07/M03 A301 RMK A01 T00671025  RH  052%=      5-min Rain = 0
KST3 160646Z 20013KT 07/M03 A301 RMK A01 T00671025  RH  052%=      5-min Rain = 0
KST3 160647Z 20013KT 07/M03 A301 RMK A01 T00681025  RH  052%=      5-min Rain = 0
KST3 160648Z 20013KT 07/M03 A301 RMK A01 T00681025  RH  052%=      5-min Rain = 0
KST3 160649Z 20012KT 07/M03 A301 RMK A01 T00671025  RH  052%=      5-min Rain = 0
KST3 160650Z 20012KT 07/M03 A301 RMK A01 T00671025  RH  052%=      5-min Rain = 0
KST3 160651Z 20011KT 07/M03 A301 RMK A01 T00671025  RH  052%=      5-min Rain = 0
KST3 160652Z 20013KT 07/M03 A301 RMK A01 T00661025  RH  052%=      5-min Rain = 0
KST3 160653Z 20012KT 07/M03 A301 RMK A01 T00661025  RH  052%=      5-min Rain = 0
KST3 160654Z 20012KT 07/M03 A301 RMK A01 T00651025  RH  052%=      5-min Rain = 0
KST3 160655Z 20012KT 07/M03 A301 RMK A01 T00661025  RH  052%=      5-min Rain = 0
KST3 160656Z 20012KT 07/M03 A301 RMK A01 T00661025  RH  052%=      5-min Rain = 0
KST3 160657Z 20012KT 07/M03 A301 RMK A01 T00661025  RH  052%=      5-min Rain = 0
KST3 160658Z 20012KT 07/M03 A301 RMK A01 T00651025  RH  052%=      5-min Rain = 0
KST3 160659Z 20011KT 07/M03 A301 RMK A01 T00651025  RH  052%=      5-min Rain = 0
KST3 160700Z 20013KT 07/M03 A301 RMK A01 T00651025  RH  052%=      5-min Rain = 0
KST3 160701Z 20011KT 07/M03 A301 RMK A01 T00661025  RH  052%=      5-min Rain = 0
KST3 160702Z 20011KT 07/M03 A301 RMK A01 T00661025  RH  052%=      5-min Rain = 0
KST3 160703Z 20011KT 07/M03 A301 RMK A01 T00651025  RH  053%=      5-min Rain = 0
KST3 160704Z 20011KT 07/M03 A301 RMK A01 T00651025  RH  053%=      5-min Rain = 0
KST3 160705Z 20012KT 07/M03 A301 RMK A01 T00651025  RH  053%=      5-min Rain = 0
KST3 160706Z 20012KT 06/M03 A301 RMK A01 T00641025  RH  053%=      5-min Rain = 0
KST3 160707Z 20012KT 06/M03 A301 RMK A01 T00641025  RH  053%=      5-min Rain = 0
KST3 160708Z 20012KT 07/M03 A301 RMK A01 T00651025  RH  053%=      5-min Rain = 0
KST3 160709Z 20012KT 06/M03 A301 RMK A01 T00641025  RH  053%=      5-min Rain = 0
KST3 160710Z 20012KT 06/M03 A301 RMK A01 T00641025  RH  053%=      5-min Rain = 0
KST3 160711Z 20013KT 07/M02 A301 RMK A01 T00651024  RH  053%=      5-min Rain = 0
KST3 160712Z 20012KT 06/M03 A301 RMK A01 T00641025  RH  053%=      5-min Rain = 0
KST3 160713Z 20011KT 06/M03 A301 RMK A01 T00641025  RH  053%=      5-min Rain = 0
KST3 160714Z 20011KT 06/M03 A301 RMK A01 T00641025  RH  053%=      5-min Rain = 0
KST3 160715Z 20011KT 06/M03 A301 RMK A01 T00631025  RH  053%=      5-min Rain = 0
KST3 160716Z 20012KT 06/M03 A301 RMK A01 T00621025  RH  054%=      5-min Rain = 0
KST3 160717Z 20011KT 06/M03 A301 RMK A01 T00621025  RH  054%=      5-min Rain = 0
KST3 160718Z 20010KT 06/M03 A301 RMK A01 T00621025  RH  054%=      5-min Rain = 0
KST3 160719Z 20010KT 06/M03 A301 RMK A01 T00611025  RH  054%=      5-min Rain = 0
KST3 160720Z 20011KT 06/M03 A301 RMK A01 T00601025  RH  054%=      5-min Rain = 0
KST3 160721Z 20010KT 06/M03 A301 RMK A01 T00591025  RH  055%=      5-min Rain = 0
KST3 160722Z 20011KT 06/M03 A301 RMK A01 T00591025  RH  055%=      5-min Rain = 0
KST3 160723Z 20010KT 06/M03 A301 RMK A01 T00581025  RH  055%=      5-min Rain = 0
KST3 160724Z 20011KT 06/M03 A301 RMK A01 T00581025  RH  055%=      5-min Rain = 0
KST3 160725Z 20010KT 06/M03 A301 RMK A01 T00571025  RH  056%=      5-min Rain = 0
KST3 160726Z 20010KT 06/M03 A301 RMK A01 T00561025  RH  056%=      5-min Rain = 0
KST3 160727Z 20010KT 06/M03 A301 RMK A01 T00571025  RH  056%=      5-min Rain = 0
KST3 160728Z 20010KT 06/M03 A301 RMK A01 T00571025  RH  056%=      5-min Rain = 0
KST3 160729Z 20009KT 06/M03 A301 RMK A01 T00561025  RH  056%=      5-min Rain = 0
KST3 160730Z 20009KT 06/M03 A301 RMK A01 T00561025  RH  056%=      5-min Rain = 0
KST3 160731Z 20009KT 06/M03 A301 RMK A01 T00551025  RH  056%=      5-min Rain = 0
KST3 160732Z 20009KT 05/M03 A301 RMK A01 T00541025  RH  056%=      5-min Rain = 0
KST3 160733Z 20009KT 05/M03 A301 RMK A01 T00531025  RH  057%=      5-min Rain = 0
KST3 160734Z 20009KT 05/M03 A301 RMK A01 T00531026  RH  057%=      5-min Rain = 0
KST3 160735Z 20009KT 05/M03 A301 RMK A01 T00531025  RH  057%=      5-min Rain = 0
KST3 160736Z 20009KT 05/M03 A301 RMK A01 T00521025  RH  057%=      5-min Rain = 0
KST3 160737Z 20009KT 05/M03 A301 RMK A01 T00521025  RH  058%=      5-min Rain = 0
KST3 160738Z 20009KT 05/M03 A301 RMK A01 T00521025  RH  058%=      5-min Rain = 0
KST3 160739Z 20010KT 05/M03 A301 RMK A01 T00521025  RH  057%=      5-min Rain = 0
KST3 160740Z 20009KT 05/M03 A301 RMK A01 T00531025  RH  057%=      5-min Rain = 0
KST3 160741Z 20009KT 05/M03 A301 RMK A01 T00531025  RH  057%=      5-min Rain = 0
KST3 160742Z 20009KT 05/M03 A301 RMK A01 T00541025  RH  057%=      5-min Rain = 0
KST3 160743Z 19009KT 05/M03 A301 RMK A01 T00541025  RH  057%=      5-min Rain = 0
KST3 160744Z 20008KT 05/M03 A301 RMK A01 T00541025  RH  057%=      5-min Rain = 0
KST3 160745Z 20009KT 05/M03 A301 RMK A01 T00541025  RH  057%=      5-min Rain = 0
KST3 160746Z 20009KT 05/M03 A301 RMK A01 T00531025  RH  057%=      5-min Rain = 0
KST3 160747Z 20008KT 05/M03 A301 RMK A01 T00531025  RH  057%=      5-min Rain = 0
KST3 160748Z 20008KT 05/M03 A301 RMK A01 T00521026  RH  057%=      5-min Rain = 0
KST3 160749Z 20008KT 05/M03 A301 RMK A01 T00511026  RH  058%=      5-min Rain = 0
KST3 160750Z 20008KT 05/M03 A301 RMK A01 T00501026  RH  058%=      5-min Rain = 0
KST3 160751Z 20008KT 05/M03 A301 RMK A01 T00481026  RH  058%=      5-min Rain = 0
KST3 160752Z 20008KT 05/M03 A301 RMK A01 T00481026  RH  059%=      5-min Rain = 0
KST3 160753Z 20008KT 05/M03 A301 RMK A01 T00471026  RH  059%=      5-min Rain = 0
KST3 160754Z 20008KT 05/M03 A301 RMK A01 T00471026  RH  059%=      5-min Rain = 0
KST3 160755Z 20008KT 05/M03 A301 RMK A01 T00471026  RH  059%=      5-min Rain = 0
KST3 160756Z 19008KT 05/M03 A301 RMK A01 T00481025  RH  059%=      5-min Rain = 0
KST3 160757Z 19008KT 05/M03 A301 RMK A01 T00491025  RH  059%=      5-min Rain = 0
KST3 160758Z 19008KT 05/M02 A301 RMK A01 T00501024  RH  059%=      5-min Rain = 0
KST3 160759Z 19008KT 05/M03 A301 RMK A01 T00501025  RH  058%=      5-min Rain = 0
KST3 160800Z 19008KT 05/M03 A301 RMK A01 T00501025  RH  058%=      5-min Rain = 0
KST3 160801Z 19008KT 05/M03 A301 RMK A01 T00501025  RH  058%=      5-min Rain = 0
KST3 160802Z 19008KT 05/M03 A301 RMK A01 T00491025  RH  058%=      5-min Rain = 0
KST3 160803Z 19008KT 05/M03 A301 RMK A01 T00491025  RH  059%=      5-min Rain = 0
KST3 160804Z 19008KT 05/M03 A301 RMK A01 T00491025  RH  059%=      5-min Rain = 0
KST3 160805Z 19008KT 05/M03 A301 RMK A01 T00491025  RH  059%=      5-min Rain = 0
KST3 160806Z 19008KT 05/M03 A301 RMK A01 T00481025  RH  059%=      5-min Rain = 0
KST3 160807Z 19009KT 05/M03 A301 RMK A01 T00471026  RH  059%=      5-min Rain = 0
KST3 160808Z 19009KT 05/M03 A301 RMK A01 T00471025  RH  059%=      5-min Rain = 0
KST3 160809Z 18009KT 05/M03 A301 RMK A01 T00471025  RH  059%=      5-min Rain = 0
KST3 160810Z 19009KT 05/M03 A301 RMK A01 T00471025  RH  059%=      5-min Rain = 0
KST3 160811Z 18010KT 05/M03 A301 RMK A01 T00481025  RH  059%=      5-min Rain = 0
KST3 160812Z 19010KT 05/M03 A301 RMK A01 T00481025  RH  059%=      5-min Rain = 0
KST3 160813Z 19010KT 05/M02 A3009 RMK A01 T00491024  RH  059%=      5-min Rain = 0
KST3 160814Z 19009KT 05/M02 A3009 RMK A01 T00501024  RH  059%=      5-min Rain = 0
KST3 160815Z 19010KT 05/M02 A3009 RMK A01 T00501024  RH  059%=      5-min Rain = 0
KST3 160816Z 19009KT 05/M03 A3009 RMK A01 T00501025  RH  059%=      5-min Rain = 0
KST3 160817Z 19010KT 05/M03 A3009 RMK A01 T00501025  RH  059%=      5-min Rain = 0
KST3 160818Z 19010KT 05/M03 A3009 RMK A01 T00491025  RH  059%=      5-min Rain = 0
KST3 160819Z 19009KT 05/M03 A3009 RMK A01 T00491025  RH  059%=      5-min Rain = 0
KST3 160820Z 19009KT 05/M02 A3009 RMK A01 T00491024  RH  059%=      5-min Rain = 0
KST3 160821Z 20009KT 05/M03 A3009 RMK A01 T00491025  RH  059%=      5-min Rain = 0
KST3 160822Z 20008KT 05/M03 A3009 RMK A01 T00491025  RH  059%=      5-min Rain = 0
KST3 160823Z 19008KT 05/M03 A3009 RMK A01 T00471025  RH  059%=      5-min Rain = 0
KST3 160824Z 19008KT 05/M03 A3009 RMK A01 T00451026  RH  060%=      5-min Rain = 0
KST3 160825Z 19009KT 04/M03 A3009 RMK A01 T00431028  RH  060%=      5-min Rain = 0
KST3 160826Z 19009KT 04/M03 A3009 RMK A01 T00401028  RH  061%=      5-min Rain = 0
KST3 160827Z 19009KT 04/M03 A3009 RMK A01 T00391027  RH  062%=      5-min Rain = 0
KST3 160828Z 19009KT 04/M03 A3009 RMK A01 T00391027  RH  062%=      5-min Rain = 0
KST3 160829Z 19010KT 04/M03 A3009 RMK A01 T00381027  RH  063%=      5-min Rain = 0
KST3 160830Z 19009KT 04/M03 A3009 RMK A01 T00381026  RH  063%=      5-min Rain = 0
KST3 160831Z 19009KT 04/M03 A3009 RMK A01 T00391026  RH  063%=      5-min Rain = 0
KST3 160832Z 19009KT 04/M03 A3009 RMK A01 T00391026  RH  063%=      5-min Rain = 0
KST3 160833Z 20010KT 04/M03 A3008 RMK A01 T00391025  RH  063%=      5-min Rain = 0
KST3 160834Z 20010KT 04/M03 A3008 RMK A01 T00391025  RH  063%=      5-min Rain = 0
KST3 160835Z 20010KT 04/M03 A3008 RMK A01 T00391025  RH  063%=      5-min Rain = 0
KST3 160836Z 20010KT 04/M03 A3008 RMK A01 T00391025  RH  063%=      5-min Rain = 0
KST3 160837Z 20010KT 04/M03 A3008 RMK A01 T00401025  RH  063%=      5-min Rain = 0
KST3 160838Z 19010KT 04/M02 A3008 RMK A01 T00401024  RH  063%=      5-min Rain = 0
KST3 160839Z 20010KT 04/M02 A3008 RMK A01 T00411024  RH  063%=      5-min Rain = 0
KST3 160840Z 20010KT 04/M02 A3008 RMK A01 T00401024  RH  063%=      5-min Rain = 0
KST3 160841Z 20010KT 04/M02 A3008 RMK A01 T00401024  RH  063%=      5-min Rain = 0
KST3 160842Z 20009KT 04/M02 A3008 RMK A01 T00401024  RH  063%=      5-min Rain = 0
KST3 160843Z 20010KT 04/M02 A3008 RMK A01 T00391024  RH  063%=      5-min Rain = 0
KST3 160844Z 20009KT 04/M02 A3008 RMK A01 T00391024  RH  063%=      5-min Rain = 0
KST3 160845Z 20010KT 04/M02 A3008 RMK A01 T00381024  RH  064%=      5-min Rain = 0
KST3 160846Z 20010KT 04/M02 A3008 RMK A01 T00381024  RH  064%=      5-min Rain = 0
KST3 160847Z 20010KT 04/M02 A3008 RMK A01 T00381024  RH  064%=      5-min Rain = 0
KST3 160848Z 20010KT 04/M02 A3008 RMK A01 T00391023  RH  064%=      5-min Rain = 0
KST3 160849Z 19009KT 04/M02 A3008 RMK A01 T00391024  RH  064%=      5-min Rain = 0
KST3 160850Z 20010KT 04/M02 A3008 RMK A01 T00391023  RH  064%=      5-min Rain = 0
KST3 160851Z 20011KT 04/M02 A3008 RMK A01 T00391023  RH  064%=      5-min Rain = 0
KST3 160852Z 20010KT 04/M02 A3008 RMK A01 T00401023  RH  064%=      5-min Rain = 0
KST3 160853Z 20010KT 04/M02 A3008 RMK A01 T00411023  RH  063%=      5-min Rain = 0
KST3 160854Z 20010KT 04/M02 A3008 RMK A01 T00411023  RH  063%=      5-min Rain = 0
KST3 160855Z 20010KT 04/M02 A3008 RMK A01 T00411023  RH  063%=      5-min Rain = 0
KST3 160856Z 20010KT 04/M02 A3008 RMK A01 T00411023  RH  063%=      5-min Rain = 0
KST3 160857Z 20009KT 04/M02 A3008 RMK A01 T00411023  RH  063%=      5-min Rain = 0
KST3 160858Z 20010KT 04/M02 A3008 RMK A01 T00401023  RH  063%=      5-min Rain = 0
KST3 160859Z 20010KT 04/M02 A3008 RMK A01 T00401023  RH  063%=      5-min Rain = 0
KST3 160900Z 20011KT 04/M02 A3008 RMK A01 T00401023  RH  064%=      5-min Rain = 0
KST3 160901Z 20010KT 04/M02 A3008 RMK A01 T00401023  RH  064%=      5-min Rain = 0
KST3 160902Z 20010KT 04/M02 A3008 RMK A01 T00401023  RH  064%=      5-min Rain = 0
KST3 160903Z 20010KT 04/M02 A3008 RMK A01 T00391023  RH  064%=      5-min Rain = 0
KST3 160904Z 20010KT 04/M02 A3008 RMK A01 T00391023  RH  064%=      5-min Rain = 0
KST3 160905Z 20010KT 04/M02 A3008 RMK A01 T00391023  RH  064%=      5-min Rain = 0
KST3 160906Z 20010KT 04/M02 A3008 RMK A01 T00391023  RH  064%=      5-min Rain = 0
KST3 160907Z 20010KT 04/M02 A3007 RMK A01 T00391022  RH  064%=      5-min Rain = 0
KST3 160908Z 19011KT 04/M02 A3007 RMK A01 T00401022  RH  064%=      5-min Rain = 0
KST3 160909Z 20011KT 04/M02 A3007 RMK A01 T00401022  RH  064%=      5-min Rain = 0
KST3 160910Z 20010KT 04/M02 A3007 RMK A01 T00401022  RH  064%=      5-min Rain = 0
KST3 160911Z 19010KT 04/M02 A3007 RMK A01 T00401023  RH  064%=      5-min Rain = 0
KST3 160912Z 19010KT 04/M02 A3007 RMK A01 T00401022  RH  064%=      5-min Rain = 0
KST3 160913Z 20011KT 04/M02 A3007 RMK A01 T00401022  RH  064%=      5-min Rain = 0
KST3 160914Z 20011KT 04/M02 A3007 RMK A01 T00401022  RH  064%=      5-min Rain = 0
KST3 160915Z 20011KT 04/M02 A3007 RMK A01 T00401022  RH  064%=      5-min Rain = 0
KST3 160916Z 20011KT 04/M02 A3007 RMK A01 T00401022  RH  064%=      5-min Rain = 0
KST3 160917Z 20011KT 04/M02 A3007 RMK A01 T00401022  RH  064%=      5-min Rain = 0
KST3 160918Z 20011KT 04/M02 A3007 RMK A01 T00401022  RH  064%=      5-min Rain = 0
KST3 160919Z 20011KT 04/M02 A3007 RMK A01 T00401021  RH  064%=      5-min Rain = 0
KST3 160920Z 20010KT 04/M02 A3007 RMK A01 T00401021  RH  064%=      5-min Rain = 0
KST3 160921Z 20011KT 04/M02 A3007 RMK A01 T00401021  RH  064%=      5-min Rain = 0
KST3 160922Z 20010KT 04/M02 A3007 RMK A01 T00401021  RH  064%=      5-min Rain = 0
KST3 160923Z 20010KT 04/M02 A3007 RMK A01 T00411021  RH  064%=      5-min Rain = 0
KST3 160924Z 20010KT 04/M02 A3007 RMK A01 T00411021  RH  064%=      5-min Rain = 0
KST3 160925Z 20010KT 04/M02 A3007 RMK A01 T00421020  RH  064%=      5-min Rain = 0
KST3 160926Z 20010KT 04/M02 A3007 RMK A01 T00411021  RH  064%=      5-min Rain = 0
KST3 160927Z 20009KT 04/M02 A3007 RMK A01 T00401021  RH  064%=      5-min Rain = 0
KST3 160928Z 20009KT 04/M02 A3007 RMK A01 T00401021  RH  065%=      5-min Rain = 0
KST3 160929Z 20010KT 04/M02 A3007 RMK A01 T00401021  RH  065%=      5-min Rain = 0
KST3 160930Z 20009KT 04/M02 A3007 RMK A01 T00401021  RH  065%=      5-min Rain = 0
KST3 160931Z 20008KT 04/M02 A3007 RMK A01 T00401020  RH  065%=      5-min Rain = 0
KST3 160932Z 20009KT 04/M02 A3007 RMK A01 T00391021  RH  065%=      5-min Rain = 0
KST3 160933Z 20009KT 04/M02 A3007 RMK A01 T00381021  RH  066%=      5-min Rain = 0
KST3 160934Z 20008KT 04/M02 A3007 RMK A01 T00381020  RH  066%=      5-min Rain = 0
KST3 160935Z 20009KT 04/M02 A3007 RMK A01 T00381019  RH  066%=      5-min Rain = 0
KST3 160936Z 19008KT 04/M02 A3007 RMK A01 T00391019  RH  066%=      5-min Rain = 0
KST3 160937Z 20009KT 04/M02 A3007 RMK A01 T00391019  RH  066%=      5-min Rain = 0
KST3 160938Z 20009KT 04/M02 A3008 RMK A01 T00401018  RH  066%=      5-min Rain = 0
KST3 160939Z 20008KT 04/M02 A3008 RMK A01 T00411018  RH  066%=      5-min Rain = 0
KST3 160940Z 20008KT 04/M02 A3008 RMK A01 T00411018  RH  065%=      5-min Rain = 0
KST3 160941Z 20008KT 04/M02 A3008 RMK A01 T00411018  RH  065%=      5-min Rain = 0
KST3 160942Z 20008KT 04/M02 A3008 RMK A01 T00411018  RH  065%=      5-min Rain = 0
KST3 160943Z 20007KT 04/M02 A3008 RMK A01 T00401019  RH  066%=      5-min Rain = 0
KST3 160944Z 20008KT 04/M02 A3008 RMK A01 T00401018  RH  066%=      5-min Rain = 0
KST3 160945Z 20008KT 04/M02 A3008 RMK A01 T00401018  RH  066%=      5-min Rain = 0
KST3 160946Z 20008KT 04/M02 A3008 RMK A01 T00401018  RH  066%=      5-min Rain = 0
KST3 160947Z 20007KT 04/M02 A3008 RMK A01 T00401018  RH  066%=      5-min Rain = 0
KST3 160948Z 20007KT 04/M02 A3008 RMK A01 T00401018  RH  066%=      5-min Rain = 0
KST3 160949Z 20007KT 04/M02 A3008 RMK A01 T00411018  RH  066%=      5-min Rain = 0
KST3 160950Z 20007KT 04/M02 A3007 RMK A01 T00411018  RH  066%=      5-min Rain = 0
KST3 160951Z 20007KT 04/M02 A3007 RMK A01 T00411017  RH  066%=      5-min Rain = 0
KST3 160952Z 20007KT 04/M02 A3007 RMK A01 T00411018  RH  066%=      5-min Rain = 0
KST3 160953Z 20007KT 04/M02 A3007 RMK A01 T00401018  RH  066%=      5-min Rain = 0
KST3 160954Z 20007KT 04/M02 A3007 RMK A01 T00391019  RH  066%=      5-min Rain = 0
KST3 160955Z 20008KT 04/M02 A3007 RMK A01 T00371020  RH  066%=      5-min Rain = 0
KST3 160956Z 20008KT 04/M02 A3007 RMK A01 T00361019  RH  067%=      5-min Rain = 0
KST3 160957Z 20009KT 04/M02 A3007 RMK A01 T00361019  RH  067%=      5-min Rain = 0
KST3 160958Z 20009KT 04/M02 A3007 RMK A01 T00361019  RH  067%=      5-min Rain = 0
KST3 160959Z 20009KT 04/M02 A3007 RMK A01 T00361018  RH  068%=      5-min Rain = 0
KST3 161000Z 20010KT 04/M02 A3007 RMK A01 T00361017  RH  068%=      5-min Rain = 0
KST3 161001Z 20010KT 04/M02 A3007 RMK A01 T00371017  RH  068%=      5-min Rain = 0
KST3 161002Z 20010KT 04/M02 A3007 RMK A01 T00371017  RH  068%=      5-min Rain = 0
KST3 161003Z 20010KT 04/M02 A3007 RMK A01 T00381016  RH  068%=      5-min Rain = 0
KST3 161004Z 20010KT 04/M02 A3007 RMK A01 T00381016  RH  068%=      5-min Rain = 0
KST3 161005Z 20011KT 04/M02 A3006 RMK A01 T00381016  RH  068%=      5-min Rain = 0
KST3 161006Z 20011KT 04/M02 A3006 RMK A01 T00381016  RH  068%=      5-min Rain = 0
KST3 161007Z 20011KT 04/M02 A3006 RMK A01 T00371016  RH  068%=      5-min Rain = 0
KST3 161008Z 20012KT 04/M02 A3006 RMK A01 T00371016  RH  068%=      5-min Rain = 0
KST3 161009Z 20012KT 04/M02 A3006 RMK A01 T00371016  RH  068%=      5-min Rain = 0
KST3 161010Z 20012KT 04/M02 A3006 RMK A01 T00371016  RH  068%=      5-min Rain = 0
KST3 161011Z 20012KT 04/M02 A3006 RMK A01 T00371016  RH  068%=      5-min Rain = 0
KST3 161012Z 20012KT 04/M02 A3006 RMK A01 T00381016  RH  068%=      5-min Rain = 0
KST3 161013Z 20012KT 04/M02 A3006 RMK A01 T00381016  RH  068%=      5-min Rain = 0
KST3 161014Z 20012KT 04/M02 A3006 RMK A01 T00391015  RH  068%=      5-min Rain = 0
KST3 161015Z 20012KT 04/M02 A3006 RMK A01 T00391016  RH  068%=      5-min Rain = 0
KST3 161016Z 20012KT 04/M02 A3006 RMK A01 T00391016  RH  067%=      5-min Rain = 0
KST3 161017Z 20012KT 04/M02 A3006 RMK A01 T00401015  RH  067%=      5-min Rain = 0
KST3 161018Z 20012KT 04/M02 A3006 RMK A01 T00401015  RH  067%=      5-min Rain = 0
KST3 161019Z 20012KT 04/M02 A3006 RMK A01 T00401016  RH  067%=      5-min Rain = 0
KST3 161020Z 20012KT 04/M02 A3006 RMK A01 T00411015  RH  067%=      5-min Rain = 0
KST3 161021Z 20012KT 04/M02 A3006 RMK A01 T00421015  RH  067%=      5-min Rain = 0
KST3 161022Z 20012KT 04/M02 A3006 RMK A01 T00431015  RH  066%=      5-min Rain = 0
KST3 161023Z 20013KT 04/M02 A3006 RMK A01 T00431015  RH  066%=      5-min Rain = 0
KST3 161024Z 20012KT 04/M01 A3006 RMK A01 T00441014  RH  066%=      5-min Rain = 0
KST3 161025Z 20013KT 04/M02 A3006 RMK A01 T00441015  RH  066%=      5-min Rain = 0
KST3 161026Z 20012KT 04/M02 A3006 RMK A01 T00441015  RH  065%=      5-min Rain = 0
KST3 161027Z 20013KT 04/M02 A3006 RMK A01 T00441015  RH  065%=      5-min Rain = 0
KST3 161028Z 20012KT 04/M02 A3006 RMK A01 T00441015  RH  065%=      5-min Rain = 0
KST3 161029Z 20012KT 05/M02 A3006 RMK A01 T00451015  RH  065%=      5-min Rain = 0
KST3 161030Z 20012KT 04/M02 A3006 RMK A01 T00441015  RH  065%=      5-min Rain = 0
KST3 161031Z 20013KT 04/M02 A3006 RMK A01 T00441015  RH  065%=      5-min Rain = 0
KST3 161032Z 20012KT 04/M02 A3006 RMK A01 T00441015  RH  065%=      5-min Rain = 0
KST3 161033Z 20012KT 04/M02 A3006 RMK A01 T00431016  RH  066%=      5-min Rain = 0
KST3 161034Z 20013KT 04/M02 A3006 RMK A01 T00421015  RH  066%=      5-min Rain = 0
KST3 161035Z 20013KT 04/M02 A3006 RMK A01 T00431015  RH  066%=      5-min Rain = 0
KST3 161036Z 20013KT 04/M02 A3006 RMK A01 T00431015  RH  066%=      5-min Rain = 0
KST3 161037Z 20011KT 04/M02 A3006 RMK A01 T00441015  RH  066%=      5-min Rain = 0
KST3 161038Z 20012KT 04/M02 A3006 RMK A01 T00431015  RH  066%=      5-min Rain = 0
KST3 161039Z 20012KT 04/M02 A3006 RMK A01 T00431015  RH  066%=      5-min Rain = 0
KST3 161040Z 20012KT 04/M02 A3006 RMK A01 T00421016  RH  066%=      5-min Rain = 0
KST3 161041Z 20012KT 04/M02 A3006 RMK A01 T00421015  RH  066%=      5-min Rain = 0
KST3 161042Z 20012KT 04/M02 A3006 RMK A01 T00421015  RH  066%=      5-min Rain = 0
KST3 161043Z 20012KT 04/M02 A3006 RMK A01 T00421015  RH  066%=      5-min Rain = 0
KST3 161044Z 20012KT 04/M02 A3006 RMK A01 T00421015  RH  066%=      5-min Rain = 0
KST3 161045Z 20012KT 04/M02 A3006 RMK A01 T00421015  RH  066%=      5-min Rain = 0
KST3 161046Z 20012KT 04/M02 A3006 RMK A01 T00421015  RH  066%=      5-min Rain = 0
KST3 161047Z 20013KT 04/M02 A3006 RMK A01 T00421015  RH  066%=      5-min Rain = 0
KST3 161048Z 20012KT 04/M02 A3006 RMK A01 T00421015  RH  066%=      5-min Rain = 0
KST3 161049Z 20012KT 04/M02 A3006 RMK A01 T00421015  RH  066%=      5-min Rain = 0
KST3 161050Z 20013KT 04/M02 A3006 RMK A01 T00421015  RH  066%=      5-min Rain = 0
KST3 161051Z 20011KT 04/M02 A3006 RMK A01 T00421015  RH  066%=      5-min Rain = 0
KST3 161052Z 20012KT 04/M02 A3006 RMK A01 T00421015  RH  066%=      5-min Rain = 0
KST3 161053Z 20012KT 04/M02 A3006 RMK A01 T00421016  RH  066%=      5-min Rain = 0
KST3 161054Z 20011KT 04/M02 A3006 RMK A01 T00421015  RH  066%=      5-min Rain = 0
KST3 161055Z 19011KT 04/M02 A3006 RMK A01 T00421015  RH  066%=      5-min Rain = 0
KST3 161056Z 19011KT 04/M02 A3006 RMK A01 T00421015  RH  066%=      5-min Rain = 0
KST3 161057Z 20010KT 04/M02 A3006 RMK A01 T00411016  RH  066%=      5-min Rain = 0
KST3 161058Z 20010KT 04/M02 A3006 RMK A01 T00411016  RH  067%=      5-min Rain = 0
KST3 161059Z 20010KT 04/M02 A3006 RMK A01 T00401016  RH  067%=      5-min Rain = 0
KST3 161100Z 20010KT 04/M02 A3005 RMK A01 T00391016  RH  067%=      5-min Rain = 0
KST3 161101Z 20011KT 04/M02 A3005 RMK A01 T00381016  RH  067%=      5-min Rain = 0
KST3 161102Z 20011KT 04/M02 A3005 RMK A01 T00381016  RH  068%=      5-min Rain = 0
KST3 161103Z 20010KT 04/M02 A3005 RMK A01 T00381015  RH  068%=      5-min Rain = 0
KST3 161104Z 20010KT 04/M02 A3005 RMK A01 T00381015  RH  068%=      5-min Rain = 0
KST3 161105Z 20011KT 04/M02 A3005 RMK A01 T00391015  RH  068%=      5-min Rain = 0
KST3 161106Z 20010KT 04/M02 A3005 RMK A01 T00391015  RH  068%=      5-min Rain = 0
KST3 161107Z 20010KT 04/M02 A3005 RMK A01 T00391015  RH  068%=      5-min Rain = 0
KST3 161108Z 20011KT 04/M02 A3005 RMK A01 T00381015  RH  068%=      5-min Rain = 0
KST3 161109Z 20012KT 04/M02 A3005 RMK A01 T00381015  RH  068%=      5-min Rain = 0
KST3 161110Z 20011KT 04/M02 A3005 RMK A01 T00381015  RH  068%=      5-min Rain = 0
KST3 161111Z 20012KT 04/M02 A3005 RMK A01 T00381015  RH  068%=      5-min Rain = 0
KST3 161112Z 20012KT 04/M02 A3005 RMK A01 T00371015  RH  069%=      5-min Rain = 0
KST3 161113Z 20012KT 04/M02 A3005 RMK A01 T00371015  RH  069%=      5-min Rain = 0
KST3 161114Z 20011KT 04/M02 A3005 RMK A01 T00361015  RH  069%=      5-min Rain = 0
KST3 161115Z 20012KT 04/M02 A3004 RMK A01 T00361015  RH  069%=      5-min Rain = 0
KST3 161116Z 20011KT 04/M02 A3004 RMK A01 T00361015  RH  069%=      5-min Rain = 0
KST3 161117Z 20011KT 04/M02 A3004 RMK A01 T00361015  RH  069%=      5-min Rain = 0
KST3 161118Z 20012KT 04/M02 A3004 RMK A01 T00361015  RH  069%=      5-min Rain = 0
KST3 161119Z 20011KT 04/M02 A3004 RMK A01 T00361015  RH  069%=      5-min Rain = 0
KST3 161120Z 20012KT 04/M02 A3004 RMK A01 T00361015  RH  069%=      5-min Rain = 0
KST3 161121Z 20011KT 04/M01 A3004 RMK A01 T00371014  RH  069%=      5-min Rain = 0
KST3 161122Z 20011KT 04/M01 A3004 RMK A01 T00361014  RH  069%=      5-min Rain = 0
KST3 161123Z 20011KT 04/M01 A3004 RMK A01 T00371014  RH  069%=      5-min Rain = 0
KST3 161124Z 20012KT 04/M01 A3004 RMK A01 T00371014  RH  069%=      5-min Rain = 0
KST3 161125Z 20012KT 04/M01 A3004 RMK A01 T00391013  RH  069%=      5-min Rain = 0
KST3 161126Z 20012KT 04/M01 A3004 RMK A01 T00401013  RH  069%=      5-min Rain = 0
KST3 161127Z 20013KT 04/M01 A3004 RMK A01 T00401012  RH  068%=      5-min Rain = 0
KST3 161128Z 20012KT 04/M01 A3004 RMK A01 T00411012  RH  068%=      5-min Rain = 0
KST3 161129Z 20013KT 04/M01 A3004 RMK A01 T00421012  RH  068%=      5-min Rain = 0
KST3 161130Z 21013KT 04/M01 A3004 RMK A01 T00421012  RH  068%=      5-min Rain = 0
KST3 161131Z 21013KT 04/M01 A3004 RMK A01 T00431012  RH  068%=      5-min Rain = 0
KST3 161132Z 21013KT 04/M01 A3004 RMK A01 T00441011  RH  067%=      5-min Rain = 0
KST3 161133Z 21013KT 05/M01 A3004 RMK A01 T00451011  RH  067%=      5-min Rain = 0
KST3 161134Z 21014KT 05/M01 A3004 RMK A01 T00461011  RH  067%=      5-min Rain = 0
KST3 161135Z 21014KT 05/M01 A3004 RMK A01 T00471011  RH  066%=      5-min Rain = 0
KST3 161136Z 21013KT 05/M01 A3004 RMK A01 T00471010  RH  066%=      5-min Rain = 0
KST3 161137Z 21012KT 05/M01 A3004 RMK A01 T00471011  RH  066%=      5-min Rain = 0
KST3 161138Z 21013KT 05/M01 A3004 RMK A01 T00471011  RH  066%=      5-min Rain = 0
KST3 161139Z 21013KT 05/M01 A3004 RMK A01 T00471011  RH  066%=      5-min Rain = 0
KST3 161140Z 21012KT 05/M01 A3004 RMK A01 T00471011  RH  066%=      5-min Rain = 0
KST3 161141Z 21012KT 05/M01 A3004 RMK A01 T00471011  RH  066%=      5-min Rain = 0
KST3 161142Z 20011KT 05/M01 A3004 RMK A01 T00481011  RH  066%=      5-min Rain = 0
KST3 161143Z 20012KT 05/M01 A3004 RMK A01 T00471012  RH  066%=      5-min Rain = 0
KST3 161144Z 20011KT 05/M01 A3004 RMK A01 T00471012  RH  066%=      5-min Rain = 0
KST3 161145Z 20013KT 05/M01 A3004 RMK A01 T00461012  RH  066%=      5-min Rain = 0
KST3 161146Z 20012KT 05/M01 A3004 RMK A01 T00461012  RH  066%=      5-min Rain = 0
KST3 161147Z 20012KT 05/M01 A3004 RMK A01 T00461012  RH  066%=      5-min Rain = 0
KST3 161148Z 20012KT 05/M01 A3004 RMK A01 T00461012  RH  066%=      5-min Rain = 0
KST3 161149Z 20012KT 05/M01 A3004 RMK A01 T00461012  RH  066%=      5-min Rain = 0
KST3 161150Z 20012KT 05/M01 A3004 RMK A01 T00461012  RH  066%=      5-min Rain = 0
KST3 161151Z 20011KT 05/M01 A3004 RMK A01 T00461012  RH  066%=      5-min Rain = 0
KST3 161152Z 20012KT 05/M01 A3004 RMK A01 T00451012  RH  066%=      5-min Rain = 0
KST3 161153Z 20011KT 05/M01 A3004 RMK A01 T00461012  RH  066%=      5-min Rain = 0
KST3 161154Z 20012KT 05/M01 A3004 RMK A01 T00461012  RH  066%=      5-min Rain = 0
KST3 161155Z 20011KT 05/M01 A3004 RMK A01 T00451012  RH  066%=      5-min Rain = 0
KST3 161156Z 20011KT 05/M01 A3004 RMK A01 T00451012  RH  066%=      5-min Rain = 0
KST3 161157Z 20010KT 04/M01 A3004 RMK A01 T00441012  RH  067%=      5-min Rain = 0
KST3 161158Z 20010KT 04/M01 A3004 RMK A01 T00441012  RH  067%=      5-min Rain = 0
KST3 161159Z 20011KT 04/M01 A3004 RMK A01 T00441012  RH  067%=      5-min Rain = 0
KST3 161200Z 20011KT 04/M01 A3004 RMK A01 T00441012  RH  067%=      5-min Rain = 0
KST3 161201Z 20011KT 04/M01 A3004 RMK A01 T00441011  RH  067%=      5-min Rain = 0
KST3 161202Z 20011KT 04/M01 A3004 RMK A01 T00441011  RH  067%=      5-min Rain = 0
KST3 161203Z 20010KT 05/M01 A3004 RMK A01 T00451011  RH  067%=      5-min Rain = 0
KST3 161204Z 20012KT 05/M01 A3003 RMK A01 T00451011  RH  067%=      5-min Rain = 0
KST3 161205Z 20011KT 05/M01 A3003 RMK A01 T00451011  RH  067%=      5-min Rain = 0
KST3 161206Z 20012KT 05/M01 A3003 RMK A01 T00451011  RH  067%=      5-min Rain = 0
KST3 161207Z 20012KT 05/M01 A3003 RMK A01 T00451010  RH  067%=      5-min Rain = 0
KST3 161208Z 20012KT 05/M01 A3003 RMK A01 T00451010  RH  067%=      5-min Rain = 0
KST3 161209Z 20013KT 05/M01 A3003 RMK A01 T00461010  RH  067%=      5-min Rain = 0
KST3 161210Z 20013KT 05/M01 A3003 RMK A01 T00481009  RH  067%=      5-min Rain = 0
KST3 161211Z 20013KT 05/M01 A3003 RMK A01 T00491009  RH  066%=      5-min Rain = 0
KST3 161212Z 20012KT 05/M01 A3003 RMK A01 T00501009  RH  066%=      5-min Rain = 0
KST3 161213Z 20013KT 05/M01 A3003 RMK A01 T00501009  RH  066%=      5-min Rain = 0
KST3 161214Z 20013KT 05/M01 A3003 RMK A01 T00501009  RH  066%=      5-min Rain = 0
KST3 161215Z 20013KT 05/M01 A3003 RMK A01 T00501008  RH  066%=      5-min Rain = 0
KST3 161216Z 20012KT 05/M01 A3003 RMK A01 T00511008  RH  066%=      5-min Rain = 0
KST3 161217Z 20013KT 05/M01 A3003 RMK A01 T00511009  RH  066%=      5-min Rain = 0
KST3 161218Z 20012KT 05/M01 A3003 RMK A01 T00511009  RH  066%=      5-min Rain = 0
KST3 161219Z 20013KT 05/M01 A3003 RMK A01 T00501009  RH  065%=      5-min Rain = 0
KST3 161220Z 20012KT 05/M01 A3003 RMK A01 T00501009  RH  066%=      5-min Rain = 0
KST3 161221Z 20012KT 05/M01 A3003 RMK A01 T00501009  RH  066%=      5-min Rain = 0
KST3 161222Z 20012KT 05/M01 A3003 RMK A01 T00501009  RH  066%=      5-min Rain = 0
KST3 161223Z 20012KT 05/M01 A3003 RMK A01 T00501009  RH  066%=      5-min Rain = 0
KST3 161224Z 20012KT 05/M01 A3003 RMK A01 T00501009  RH  066%=      5-min Rain = 0
KST3 161225Z 20013KT 05/M01 A3003 RMK A01 T00501008  RH  066%=      5-min Rain = 0
KST3 161226Z 20012KT 05/M01 A3003 RMK A01 T00501009  RH  066%=      5-min Rain = 0
KST3 161227Z 20012KT 05/M01 A3003 RMK A01 T00501009  RH  066%=      5-min Rain = 0
KST3 161228Z 20013KT 05/M01 A3003 RMK A01 T00501009  RH  066%=      5-min Rain = 0
KST3 161229Z 20013KT 05/M01 A3003 RMK A01 T00501008  RH  066%=      5-min Rain = 0
KST3 161230Z 20012KT 05/M01 A3003 RMK A01 T00511008  RH  066%=      5-min Rain = 0
KST3 161231Z 20012KT 05/M01 A3003 RMK A01 T00501008  RH  066%=      5-min Rain = 0
KST3 161232Z 20013KT 05/M01 A3003 RMK A01 T00511008  RH  066%=      5-min Rain = 0
KST3 161233Z 20013KT 05/M01 A3003 RMK A01 T00511008  RH  066%=      5-min Rain = 0
KST3 161234Z 20013KT 05/M01 A3003 RMK A01 T00511008  RH  066%=      5-min Rain = 0
KST3 161235Z 20012KT 05/M01 A3003 RMK A01 T00511008  RH  065%=      5-min Rain = 0
KST3 161236Z 20013KT 05/M01 A3003 RMK A01 T00511008  RH  065%=      5-min Rain = 0
KST3 161237Z 20011KT 05/M01 A3003 RMK A01 T00521008  RH  066%=      5-min Rain = 0
KST3 161238Z 20012KT 05/M01 A3003 RMK A01 T00511008  RH  066%=      5-min Rain = 0
KST3 161239Z 20011KT 05/M01 A3003 RMK A01 T00511008  RH  066%=      5-min Rain = 0
KST3 161240Z 20012KT 05/M01 A3003 RMK A01 T00511008  RH  066%=      5-min Rain = 0
KST3 161241Z 20012KT 05/M01 A3003 RMK A01 T00501008  RH  066%=      5-min Rain = 0
KST3 161242Z 20012KT 05/M01 A3003 RMK A01 T00501008  RH  066%=      5-min Rain = 0
KST3 161243Z 20012KT 05/M01 A3004 RMK A01 T00501008  RH  066%=      5-min Rain = 0
KST3 161244Z 19011KT 05/M01 A3004 RMK A01 T00491009  RH  066%=      5-min Rain = 0
KST3 161245Z 20012KT 05/M01 A3004 RMK A01 T00491008  RH  067%=      5-min Rain = 0
KST3 161246Z 20012KT 05/M01 A3004 RMK A01 T00481009  RH  067%=      5-min Rain = 0
KST3 161247Z 19011KT 05/M01 A3004 RMK A01 T00481008  RH  067%=      5-min Rain = 0
KST3 161248Z 19011KT 05/M01 A3004 RMK A01 T00481009  RH  067%=      5-min Rain = 0
KST3 161249Z 19012KT 05/M01 A3004 RMK A01 T00481009  RH  067%=      5-min Rain = 0
KST3 161250Z 19010KT 05/M01 A3004 RMK A01 T00471009  RH  067%=      5-min Rain = 0
KST3 161251Z 19010KT 05/M01 A3004 RMK A01 T00471009  RH  067%=      5-min Rain = 0
KST3 161252Z 19011KT 05/M01 A3004 RMK A01 T00461009  RH  068%=      5-min Rain = 0
KST3 161253Z 19010KT 05/M01 A3004 RMK A01 T00461009  RH  068%=      5-min Rain = 0
KST3 161254Z 19010KT 05/M01 A3004 RMK A01 T00451009  RH  068%=      5-min Rain = 0
KST3 161255Z 20010KT 05/M01 A3004 RMK A01 T00461008  RH  068%=      5-min Rain = 0
KST3 161256Z 20010KT 05/M01 A3004 RMK A01 T00451008  RH  068%=      5-min Rain = 0
KST3 161257Z 20010KT 05/M01 A3004 RMK A01 T00451009  RH  068%=      5-min Rain = 0
KST3 161258Z 20010KT 05/M01 A3004 RMK A01 T00451008  RH  068%=      5-min Rain = 0
KST3 161259Z 20010KT 04/M01 A3004 RMK A01 T00441009  RH  069%=      5-min Rain = 0
KST3 161300Z 20011KT 04/M01 A3004 RMK A01 T00441008  RH  069%=      5-min Rain = 0
KST3 161301Z 20011KT 04/M01 A3004 RMK A01 T00441008  RH  069%=      5-min Rain = 0
KST3 161302Z 20009KT 04/M01 A3004 RMK A01 T00441008  RH  069%=      5-min Rain = 0
KST3 161303Z 20010KT 04/M01 A3004 RMK A01 T00441009  RH  069%=      5-min Rain = 0
KST3 161304Z 20010KT 04/M01 A3004 RMK A01 T00441008  RH  069%=      5-min Rain = 0
KST3 161305Z 20010KT 04/M01 A3004 RMK A01 T00431008  RH  069%=      5-min Rain = 0
KST3 161306Z 20010KT 04/M01 A3004 RMK A01 T00431008  RH  069%=      5-min Rain = 0
KST3 161307Z 20009KT 04/M01 A3004 RMK A01 T00431008  RH  069%=      5-min Rain = 0
KST3 161308Z 20009KT 04/M01 A3004 RMK A01 T00421009  RH  070%=      5-min Rain = 0
KST3 161309Z 20010KT 04/M01 A3004 RMK A01 T00401009  RH  070%=      5-min Rain = 0
KST3 161310Z 20010KT 04/M01 A3004 RMK A01 T00401009  RH  070%=      5-min Rain = 0
KST3 161311Z 20010KT 04/M01 A3004 RMK A01 T00391009  RH  071%=      5-min Rain = 0
KST3 161312Z 20010KT 04/M01 A3004 RMK A01 T00391009  RH  071%=      5-min Rain = 0
KST3 161313Z 21010KT 04/M01 A3004 RMK A01 T00381009  RH  071%=      5-min Rain = 0
KST3 161314Z 21010KT 04/M01 A3004 RMK A01 T00381009  RH  071%=      5-min Rain = 0
KST3 161315Z 20010KT 04/M01 A3004 RMK A01 T00371009  RH  072%=      5-min Rain = 0
KST3 161316Z 21010KT 04/M01 A3004 RMK A01 T00371009  RH  072%=      5-min Rain = 0
KST3 161317Z 21010KT 04/M01 A3004 RMK A01 T00371009  RH  072%=      5-min Rain = 0
KST3 161318Z 21010KT 04/M01 A3004 RMK A01 T00361009  RH  072%=      5-min Rain = 0
KST3 161319Z 21010KT 04/M01 A3004 RMK A01 T00361009  RH  072%=      5-min Rain = 0
KST3 161320Z 21010KT 04/M01 A3004 RMK A01 T00351009  RH  073%=      5-min Rain = 0
KST3 161321Z 21010KT 04/M01 A3004 RMK A01 T00351009  RH  073%=      5-min Rain = 0
KST3 161322Z 21010KT 04/M01 A3004 RMK A01 T00351009  RH  073%=      5-min Rain = 0
KST3 161323Z 20011KT 04/M01 A3003 RMK A01 T00351009  RH  073%=      5-min Rain = 0
KST3 161324Z 20010KT 03/M01 A3003 RMK A01 T00341009  RH  073%=      5-min Rain = 0
KST3 161325Z 20011KT 04/M01 A3003 RMK A01 T00351009  RH  073%=      5-min Rain = 0
KST3 161326Z 20010KT 03/M01 A3003 RMK A01 T00341009  RH  073%=      5-min Rain = 0
KST3 161327Z 20010KT 04/M01 A3003 RMK A01 T00351009  RH  073%=      5-min Rain = 0
KST3 161328Z 20010KT 04/M01 A3003 RMK A01 T00351009  RH  073%=      5-min Rain = 0
KST3 161329Z 20010KT 04/M01 A3003 RMK A01 T00351008  RH  073%=      5-min Rain = 0
KST3 161330Z 20010KT 04/M01 A3003 RMK A01 T00361008  RH  073%=      5-min Rain = 0
KST3 161331Z 20011KT 04/M01 A3003 RMK A01 T00371007  RH  073%=      5-min Rain = 0
KST3 161332Z 20010KT 04/M01 A3003 RMK A01 T00381007  RH  072%=      5-min Rain = 0
KST3 161333Z 20010KT 04/M01 A3003 RMK A01 T00391007  RH  072%=      5-min Rain = 0
KST3 161334Z 20010KT 04/M01 A3003 RMK A01 T00391007  RH  072%=      5-min Rain = 0
KST3 161335Z 20010KT 04/M01 A3003 RMK A01 T00391007  RH  072%=      5-min Rain = 0
KST3 161336Z 20010KT 04/M01 A3003 RMK A01 T00391007  RH  072%=      5-min Rain = 0
KST3 161337Z 20010KT 04/M01 A3003 RMK A01 T00391007  RH  072%=      5-min Rain = 0
KST3 161338Z 20009KT 04/M01 A3003 RMK A01 T00391007  RH  072%=      5-min Rain = 0
KST3 161339Z 20010KT 04/M01 A3003 RMK A01 T00401007  RH  072%=      5-min Rain = 0
KST3 161340Z 20010KT 04/M01 A3003 RMK A01 T00401007  RH  072%=      5-min Rain = 0
KST3 161341Z 20009KT 04/M01 A3003 RMK A01 T00401006  RH  072%=      5-min Rain = 0
KST3 161342Z 20010KT 04/M01 A3003 RMK A01 T00411006  RH  071%=      5-min Rain = 0
KST3 161343Z 20010KT 04/M01 A3003 RMK A01 T00431005  RH  071%=      5-min Rain = 0
KST3 161344Z 19010KT 04/M01 A3003 RMK A01 T00441005  RH  070%=      5-min Rain = 0
KST3 161345Z 20010KT 05/M01 A3003 RMK A01 T00451005  RH  070%=      5-min Rain = 0
KST3 161346Z 19010KT 05/M01 A3003 RMK A01 T00461005  RH  070%=      5-min Rain = 0
KST3 161347Z 19010KT 05/M01 A3003 RMK A01 T00461005  RH  069%=      5-min Rain = 0
KST3 161348Z 19010KT 05/M01 A3003 RMK A01 T00461005  RH  069%=      5-min Rain = 0
KST3 161349Z 20010KT 05/M01 A3003 RMK A01 T00461006  RH  069%=      5-min Rain = 0
KST3 161350Z 19010KT 05/M01 A3003 RMK A01 T00461006  RH  069%=      5-min Rain = 0
KST3 161351Z 20010KT 05/M01 A3003 RMK A01 T00461006  RH  069%=      5-min Rain = 0
KST3 161352Z 20010KT 05/M01 A3003 RMK A01 T00461006  RH  069%=      5-min Rain = 0
KST3 161353Z 19010KT 05/M01 A3003 RMK A01 T00461005  RH  069%=      5-min Rain = 0
KST3 161354Z 20011KT 05/M01 A3003 RMK A01 T00451005  RH  070%=      5-min Rain = 0
KST3 161355Z 20011KT 05/M01 A3003 RMK A01 T00461005  RH  070%=      5-min Rain = 0
KST3 161356Z 20011KT 05/M01 A3003 RMK A01 T00461005  RH  070%=      5-min Rain = 0
KST3 161357Z 20011KT 05/M01 A3003 RMK A01 T00461005  RH  070%=      5-min Rain = 0
KST3 161358Z 20011KT 05/M00 A3003 RMK A01 T00471004  RH  070%=      5-min Rain = 0
KST3 161359Z 20010KT 05/M00 A3003 RMK A01 T00471004  RH  069%=      5-min Rain = 0
KST3 161400Z 20010KT 05/M00 A3003 RMK A01 T00471004  RH  069%=      5-min Rain = 0
KST3 161401Z 20011KT 05/M00 A3003 RMK A01 T00471004  RH  069%=      5-min Rain = 0
KST3 161402Z 20011KT 05/M00 A3003 RMK A01 T00471004  RH  069%=      5-min Rain = 0
KST3 161403Z 19011KT 05/M00 A3003 RMK A01 T00481004  RH  069%=      5-min Rain = 0
KST3 161404Z 20010KT 05/M00 A3003 RMK A01 T00481004  RH  069%=      5-min Rain = 0
KST3 161405Z 20010KT 05/M01 A3003 RMK A01 T00481005  RH  069%=      5-min Rain = 0
KST3 161406Z 19010KT 05/M00 A3003 RMK A01 T00481004  RH  069%=      5-min Rain = 0
KST3 161407Z 20010KT 05/M00 A3003 RMK A01 T00481004  RH  069%=      5-min Rain = 0
KST3 161408Z 20010KT 05/M00 A3003 RMK A01 T00491004  RH  069%=      5-min Rain = 0
KST3 161409Z 20010KT 05/M00 A3003 RMK A01 T00491004  RH  068%=      5-min Rain = 0
KST3 161410Z 20010KT 05/M00 A3003 RMK A01 T00491004  RH  068%=      5-min Rain = 0
KST3 161411Z 20010KT 05/M00 A3004 RMK A01 T00501003  RH  068%=      5-min Rain = 0
KST3 161412Z 20010KT 05/M00 A3004 RMK A01 T00511003  RH  068%=      5-min Rain = 0
KST3 161413Z 20010KT 05/M00 A3004 RMK A01 T00511003  RH  068%=      5-min Rain = 0
KST3 161414Z 20010KT 05/M00 A3004 RMK A01 T00511003  RH  068%=      5-min Rain = 0
KST3 161415Z 20010KT 05/M00 A3004 RMK A01 T00521002  RH  068%=      5-min Rain = 0
KST3 161416Z 20011KT 05/M00 A3004 RMK A01 T00531002  RH  068%=      5-min Rain = 0
KST3 161417Z 20009KT 05/M00 A3004 RMK A01 T00531002  RH  067%=      5-min Rain = 0
KST3 161418Z 20010KT 05/M00 A3004 RMK A01 T00541001  RH  067%=      5-min Rain = 0
KST3 161419Z 20010KT 06/M00 A3004 RMK A01 T00551001  RH  067%=      5-min Rain = 0
KST3 161420Z 20010KT 06/M00 A3004 RMK A01 T00561001  RH  067%=      5-min Rain = 0
KST3 161421Z 20011KT 06/00 A3004 RMK A01 T005800-0  RH  066%=      5-min Rain = 0
KST3 161422Z 20010KT 06/00 A3004 RMK A01 T00590000  RH  066%=      5-min Rain = 0
KST3 161423Z 20011KT 06/00 A3004 RMK A01 T00600001  RH  066%=      5-min Rain = 0
KST3 161424Z 20011KT 06/00 A3004 RMK A01 T00600000  RH  065%=      5-min Rain = 0
KST3 161425Z 21012KT 06/00 A3004 RMK A01 T00610000  RH  065%=      5-min Rain = 0
KST3 161426Z 21011KT 06/00 A3004 RMK A01 T00620000  RH  065%=      5-min Rain = 0
KST3 161427Z 21010KT 06/00 A3004 RMK A01 T00620000  RH  065%=      5-min Rain = 0
KST3 161428Z 21010KT 06/00 A3004 RMK A01 T00620001  RH  065%=      5-min Rain = 0
KST3 161429Z 21013KT 06/00 A3004 RMK A01 T00630001  RH  065%=      5-min Rain = 0
KST3 161430Z 21012KT 06/00 A3004 RMK A01 T00640001  RH  064%=      5-min Rain = 0
KST3 161431Z 21011KT 07/00 A3004 RMK A01 T00650001  RH  064%=      5-min Rain = 0
KST3 161432Z 21011KT 07/00 A3004 RMK A01 T00660002  RH  064%=      5-min Rain = 0
KST3 161433Z 21010KT 07/00 A3004 RMK A01 T00660001  RH  063%=      5-min Rain = 0
KST3 161434Z 21012KT 07/00 A3004 RMK A01 T00670002  RH  063%=      5-min Rain = 0
KST3 161435Z 21012KT 07/00 A3004 RMK A01 T00670001  RH  063%=      5-min Rain = 0
KST3 161436Z 21012KT 07/00 A3003 RMK A01 T00680002  RH  063%=      5-min Rain = 0
KST3 161437Z 21011KT 07/00 A3003 RMK A01 T00680002  RH  063%=      5-min Rain = 0
KST3 161438Z 21011KT 07/00 A3003 RMK A01 T00690003  RH  063%=      5-min Rain = 0
KST3 161439Z 21011KT 07/00 A3003 RMK A01 T00690003  RH  063%=      5-min Rain = 0
KST3 161440Z 21013KT 07/00 A3003 RMK A01 T00710003  RH  062%=      5-min Rain = 0
KST3 161441Z 21012KT 07/00 A3003 RMK A01 T00710003  RH  062%=      5-min Rain = 0
KST3 161442Z 21011KT 07/01 A3003 RMK A01 T00730005  RH  062%=      5-min Rain = 0
KST3 161443Z 21013KT 08/01 A3003 RMK A01 T00750005  RH  061%=      5-min Rain = 0
KST3 161444Z 21013KT 08/01 A3003 RMK A01 T00760005  RH  061%=      5-min Rain = 0
KST3 161445Z 21013KT 08/00 A3003 RMK A01 T00760004  RH  060%=      5-min Rain = 0
KST3 161446Z 21013KT 08/00 A3003 RMK A01 T00770004  RH  060%=      5-min Rain = 0
KST3 161447Z 21013KT 08/00 A3003 RMK A01 T00770004  RH  060%=      5-min Rain = 0
KST3 161448Z 21013KT 08/01 A3003 RMK A01 T00780005  RH  060%=      5-min Rain = 0
KST3 161449Z 21014KT 08/01 A3003 RMK A01 T00780005  RH  060%=      5-min Rain = 0
KST3 161450Z 21014KT 08/00 A3003 RMK A01 T00780004  RH  059%=      5-min Rain = 0
KST3 161451Z 21015KT 08/00 A3003 RMK A01 T00780004  RH  059%=      5-min Rain = 0
KST3 161452Z 21015KT 08/00 A3003 RMK A01 T00790004  RH  059%=      5-min Rain = 0
KST3 161453Z 22015KT 08/00 A3003 RMK A01 T00790004  RH  059%=      5-min Rain = 0
KST3 161454Z 22016KT 08/00 A3003 RMK A01 T00790004  RH  059%=      5-min Rain = 0
KST3 161455Z 22012KT 08/00 A3003 RMK A01 T00790004  RH  059%=      5-min Rain = 0
KST3 161456Z 22015KT 08/00 A3003 RMK A01 T00790004  RH  059%=      5-min Rain = 0
KST3 161457Z 21017KT 08/00 A3003 RMK A01 T00790004  RH  059%=      5-min Rain = 0
KST3 161458Z 21015KT 08/00 A3003 RMK A01 T00790003  RH  059%=      5-min Rain = 0
KST3 161459Z 22014KT 08/00 A3003 RMK A01 T00790004  RH  059%=      5-min Rain = 0
KST3 161500Z 21015KT 08/00 A3003 RMK A01 T00800004  RH  059%=      5-min Rain = 0
KST3 161501Z 21015KT 08/00 A3003 RMK A01 T00810003  RH  058%=      5-min Rain = 0
KST3 161502Z 21015KT 08/00 A3003 RMK A01 T00820004  RH  058%=      5-min Rain = 0
KST3 161503Z 21014KT 08/00 A3003 RMK A01 T00820004  RH  058%=      5-min Rain = 0
KST3 161504Z 21016KT 08/00 A3003 RMK A01 T00830004  RH  058%=      5-min Rain = 0
KST3 161505Z 22017KT 08/00 A3003 RMK A01 T00840004  RH  057%=      5-min Rain = 0
KST3 161506Z 22016KT 08/00 A3003 RMK A01 T00840003  RH  057%=      5-min Rain = 0
KST3 161507Z 22016KT 08/00 A3003 RMK A01 T00840003  RH  057%=      5-min Rain = 0
KST3 161508Z 22015KT 09/00 A3003 RMK A01 T00850004  RH  057%=      5-min Rain = 0
KST3 161509Z 22016KT 09/00 A3003 RMK A01 T00860004  RH  056%=      5-min Rain = 0
KST3 161510Z 21017KT 09/00 A3003 RMK A01 T00860004  RH  056%=      5-min Rain = 0
KST3 161511Z 22016KT 09/00 A3003 RMK A01 T00860003  RH  056%=      5-min Rain = 0
KST3 161512Z 21013KT 09/01 A3003 RMK A01 T00870005  RH  056%=      5-min Rain = 0
KST3 161513Z 21015KT 09/01 A3003 RMK A01 T00890006  RH  056%=      5-min Rain = 0
KST3 161514Z 21018KT 09/00 A3003 RMK A01 T00890004  RH  055%=      5-min Rain = 0
KST3 161515Z 21017KT 09/01 A3003 RMK A01 T00890005  RH  055%=      5-min Rain = 0
KST3 161516Z 22017KT 09/01 A3003 RMK A01 T00900005  RH  055%=      5-min Rain = 0
KST3 161517Z 22014KT 09/01 A3003 RMK A01 T00910005  RH  055%=      5-min Rain = 0
KST3 161518Z 22016KT 09/01 A3003 RMK A01 T00920005  RH  055%=      5-min Rain = 0
KST3 161519Z 21018KT 09/01 A3003 RMK A01 T00920005  RH  055%=      5-min Rain = 0
KST3 161520Z 21018KT 09/01 A3003 RMK A01 T00910005  RH  055%=      5-min Rain = 0
KST3 161521Z 21016KT 09/00 A3003 RMK A01 T00910004  RH  055%=      5-min Rain = 0
KST3 161522Z 21016KT 09/00 A3003 RMK A01 T00900004  RH  055%=      5-min Rain = 0
KST3 161523Z 21013KT 09/00 A3003 RMK A01 T00900004  RH  055%=      5-min Rain = 0
KST3 161524Z 21014KT 09/01 A3003 RMK A01 T00910006  RH  055%=      5-min Rain = 0
KST3 161525Z 21014KT 09/01 A3003 RMK A01 T00910005  RH  055%=      5-min Rain = 0
KST3 161526Z 22012KT 09/01 A3003 RMK A01 T00930006  RH  055%=      5-min Rain = 0
KST3 161527Z 21015KT 09/01 A3003 RMK A01 T00940007  RH  054%=      5-min Rain = 0
KST3 161528Z 21015KT 09/01 A3003 RMK A01 T00940006  RH  054%=      5-min Rain = 0
KST3 161529Z 21016KT 09/01 A3003 RMK A01 T00930005  RH  054%=      5-min Rain = 0
KST3 161530Z 22016KT 09/01 A3003 RMK A01 T00920005  RH  054%=      5-min Rain = 0
KST3 161531Z 21015KT 09/01 A3003 RMK A01 T00920005  RH  055%=      5-min Rain = 0
KST3 161532Z 21015KT 09/01 A3003 RMK A01 T00910005  RH  055%=      5-min Rain = 0
KST3 161533Z 21017KT 09/01 A3003 RMK A01 T00920006  RH  055%=      5-min Rain = 0
KST3 161534Z 21015KT 09/01 A3003 RMK A01 T00930006  RH  055%=      5-min Rain = 0
KST3 161535Z 21015KT 09/01 A3003 RMK A01 T00940007  RH  055%=      5-min Rain = 0
KST3 161536Z 21014KT 10/01 A3003 RMK A01 T00950006  RH  054%=      5-min Rain = 0
KST3 161537Z 21015KT 10/01 A3003 RMK A01 T00950007  RH  054%=      5-min Rain = 0
KST3 161538Z 21014KT 10/01 A3003 RMK A01 T00960006  RH  054%=      5-min Rain = 0
KST3 161539Z 21014KT 10/01 A3003 RMK A01 T00970007  RH  054%=      5-min Rain = 0
KST3 161540Z 21014KT 10/01 A3003 RMK A01 T00970007  RH  053%=      5-min Rain = 0
KST3 161541Z 21015KT 10/01 A3003 RMK A01 T00980007  RH  053%=      5-min Rain = 0
KST3 161542Z 21015KT 10/01 A3003 RMK A01 T00980006  RH  053%=      5-min Rain = 0
KST3 161543Z 21015KT 10/01 A3003 RMK A01 T00980007  RH  053%=      5-min Rain = 0
KST3 161544Z 21014KT 10/01 A3003 RMK A01 T00990006  RH  052%=      5-min Rain = 0
KST3 161545Z 20013KT 10/01 A3003 RMK A01 T00990007  RH  053%=      5-min Rain = 0
KST3 161546Z 21016KT 10/01 A3003 RMK A01 T01010007  RH  052%=      5-min Rain = 0
KST3 161547Z 20016KT 10/01 A3003 RMK A01 T01020005  RH  051%=      5-min Rain = 0
KST3 161548Z 21015KT 10/01 A3003 RMK A01 T01010005  RH  051%=      5-min Rain = 0
KST3 161549Z 21015KT 10/01 A3003 RMK A01 T01010006  RH  052%=      5-min Rain = 0
KST3 161550Z 21016KT 10/01 A3003 RMK A01 T01020006  RH  051%=      5-min Rain = 0
KST3 161551Z 20015KT 10/01 A3003 RMK A01 T01020006  RH  051%=      5-min Rain = 0
KST3 161552Z 20016KT 10/01 A3003 RMK A01 T01030006  RH  051%=      5-min Rain = 0
KST3 161553Z 21016KT 10/01 A3003 RMK A01 T01040006  RH  051%=      5-min Rain = 0
KST3 161554Z 21016KT 11/01 A3003 RMK A01 T01050007  RH  050%=      5-min Rain = 0
KST3 161555Z 21015KT 11/01 A3003 RMK A01 T01060007  RH  050%=      5-min Rain = 0
KST3 161556Z 21013G18KT 11/01 A3003 RMK A01 T01070007  RH  050%=      5-min Rain = 0
KST3 161557Z 20015KT 11/01 A3003 RMK A01 T01090008  RH  050%=      5-min Rain = 0
KST3 161558Z 20016KT 11/01 A3003 RMK A01 T01090007  RH  049%=      5-min Rain = 0
KST3 161559Z 20016KT 11/01 A3003 RMK A01 T01080006  RH  049%=      5-min Rain = 0
KST3 161600Z 20017KT 11/01 A3003 RMK A01 T01080005  RH  049%=      5-min Rain = 0
KST3 161601Z 21014KT 11/01 A3003 RMK A01 T01080007  RH  050%=      5-min Rain = 0
KST3 161602Z 20016KT 11/01 A3003 RMK A01 T01100008  RH  049%=      5-min Rain = 0
KST3 161603Z 20014KT 11/01 A3003 RMK A01 T01100006  RH  048%=      5-min Rain = 0
KST3 161604Z 20017KT 11/01 A3003 RMK A01 T01100006  RH  048%=      5-min Rain = 0
KST3 161605Z 20015KT 11/01 A3003 RMK A01 T01100005  RH  048%=      5-min Rain = 0
KST3 161606Z 21014KT 11/01 A3003 RMK A01 T01110005  RH  048%=      5-min Rain = 0
KST3 161607Z 21016KT 11/01 A3003 RMK A01 T01120006  RH  048%=      5-min Rain = 0
KST3 161608Z 21016KT 11/01 A3003 RMK A01 T01120005  RH  047%=      5-min Rain = 0
KST3 161609Z 21015KT 12/01 A3003 RMK A01 T01150007  RH  047%=      5-min Rain = 0
KST3 161610Z 21014KT 12/01 A3003 RMK A01 T01160005  RH  047%=      5-min Rain = 0
KST3 161611Z 21015KT 12/01 A3003 RMK A01 T01170007  RH  047%=      5-min Rain = 0
KST3 161612Z 20017KT 12/01 A3003 RMK A01 T01170005  RH  046%=      5-min Rain = 0
KST3 161613Z 20017KT 12/01 A3003 RMK A01 T01170005  RH  046%=      5-min Rain = 0
KST3 161614Z 20015KT 12/01 A3003 RMK A01 T01170005  RH  046%=      5-min Rain = 0
KST3 161615Z 21015KT 12/01 A3003 RMK A01 T01160005  RH  046%=      5-min Rain = 0
KST3 161616Z 21015KT 12/01 A3003 RMK A01 T01180006  RH  046%=      5-min Rain = 0
KST3 161617Z 21015KT 12/01 A3003 RMK A01 T01200006  RH  046%=      5-min Rain = 0
KST3 161618Z 21016KT 12/01 A3003 RMK A01 T01220006  RH  045%=      5-min Rain = 0
KST3 161619Z 22017KT 12/00 A3002 RMK A01 T01220004  RH  044%=      5-min Rain = 0
KST3 161620Z 21017KT 12/00 A3002 RMK A01 T01220004  RH  044%=      5-min Rain = 0
KST3 161621Z 21017KT 12/00 A3002 RMK A01 T01220004  RH  044%=      5-min Rain = 0
KST3 161622Z 21016KT 12/00 A3002 RMK A01 T01210004  RH  045%=      5-min Rain = 0
KST3 161623Z 21015KT 12/01 A3002 RMK A01 T01210005  RH  045%=      5-min Rain = 0
KST3 161624Z 21017KT 12/00 A3002 RMK A01 T01220004  RH  044%=      5-min Rain = 0
KST3 161625Z 21015KT 12/00 A3002 RMK A01 T01220004  RH  044%=      5-min Rain = 0
KST3 161626Z 21017KT 12/01 A3002 RMK A01 T01240005  RH  044%=      5-min Rain = 0
KST3 161627Z 21017KT 13/00 A3002 RMK A01 T01250004  RH  043%=      5-min Rain = 0
KST3 161628Z 21017KT 13/00 A3002 RMK A01 T01260004  RH  043%=      5-min Rain = 0
KST3 161629Z 21017KT 13/00 A3002 RMK A01 T01270004  RH  043%=      5-min Rain = 0
KST3 161630Z 22018KT 13/00 A3002 RMK A01 T01280004  RH  043%=      5-min Rain = 0
KST3 161631Z 21015KT 13/00 A3002 RMK A01 T01280004  RH  043%=      5-min Rain = 0
KST3 161632Z 21017KT 13/01 A3002 RMK A01 T01300005  RH  042%=      5-min Rain = 0
KST3 161633Z 21017KT 13/00 A3002 RMK A01 T01300004  RH  042%=      5-min Rain = 0
KST3 161634Z 21018KT 13/00 A3002 RMK A01 T01290003  RH  042%=      5-min Rain = 0
KST3 161635Z 21016KT 13/00 A3002 RMK A01 T01290003  RH  042%=      5-min Rain = 0
KST3 161636Z 21015KT 13/01 A3002 RMK A01 T01300005  RH  042%=      5-min Rain = 0
KST3 161637Z 21017KT 13/00 A3002 RMK A01 T01320004  RH  041%=      5-min Rain = 0
KST3 161638Z 21015KT 13/00 A3002 RMK A01 T01330003  RH  041%=      5-min Rain = 0
KST3 161639Z 21017KT 13/00 A3002 RMK A01 T01330004  RH  041%=      5-min Rain = 0
KST3 161640Z 21016KT 13/00 A3002 RMK A01 T01330003  RH  041%=      5-min Rain = 0
KST3 161641Z 21016KT 14/00 A3002 RMK A01 T01350004  RH  041%=      5-min Rain = 0
KST3 161642Z 20018KT 14/00 A3002 RMK A01 T01350003  RH  040%=      5-min Rain = 0
KST3 161643Z 20017KT 14/00 A3002 RMK A01 T01360003  RH  040%=      5-min Rain = 0
KST3 161644Z 20016KT 14/00 A3002 RMK A01 T01360003  RH  040%=      5-min Rain = 0
KST3 161645Z 21018KT 14/00 A3002 RMK A01 T01380003  RH  040%=      5-min Rain = 0
KST3 161646Z 20016KT 14/00 A3002 RMK A01 T01380003  RH  040%=      5-min Rain = 0
KST3 161647Z 21015KT 14/01 A3002 RMK A01 T01400005  RH  040%=      5-min Rain = 0
KST3 161648Z 22018KT 14/01 A3001 RMK A01 T01420005  RH  039%=      5-min Rain = 0
KST3 161649Z 21019KT 14/00 A3001 RMK A01 T01420003  RH  039%=      5-min Rain = 0
KST3 161650Z 21016G21KT 14/00 A3001 RMK A01 T01410002  RH  039%=      5-min Rain = 0
KST3 161651Z 22019KT 14/00 A3001 RMK A01 T01420004  RH  039%=      5-min Rain = 0
KST3 161652Z 21018KT 14/00 A3001 RMK A01 T01420003  RH  038%=      5-min Rain = 0
KST3 161653Z 21019KT 14/00 A3001 RMK A01 T01420003  RH  039%=      5-min Rain = 0
KST3 161654Z 21018KT 14/00 A3001 RMK A01 T01420002  RH  038%=      5-min Rain = 0
KST3 161655Z 21016KT 14/00 A3001 RMK A01 T01430003  RH  038%=      5-min Rain = 0
KST3 161656Z 21018KT 14/00 A3001 RMK A01 T01440003  RH  038%=      5-min Rain = 0
KST3 161657Z 21016KT 14/00 A3001 RMK A01 T01430003  RH  038%=      5-min Rain = 0
KST3 161658Z 20015KT 14/01 A3001 RMK A01 T01430005  RH  039%=      5-min Rain = 0
KST3 161659Z 20017KT 14/01 A3001 RMK A01 T01440006  RH  039%=      5-min Rain = 0
KST3 161700Z 20017KT 14/01 A3001 RMK A01 T01440005  RH  039%=      5-min Rain = 0
KST3 161701Z 20017KT 14/00 A3001 RMK A01 T01440004  RH  038%=      5-min Rain = 0
KST3 161702Z 21015KT 14/00 A3001 RMK A01 T01440003  RH  038%=      5-min Rain = 0
KST3 161703Z 21015KT 14/00 A3001 RMK A01 T01440004  RH  038%=      5-min Rain = 0
KST3 161704Z 21014KT 15/01 A3001 RMK A01 T01450005  RH  038%=      5-min Rain = 0
KST3 161705Z 22017KT 15/01 A3001 RMK A01 T01470006  RH  038%=      5-min Rain = 0
KST3 161706Z 21014KT 15/01 A30 RMK A01 T01470005  RH  038%=      5-min Rain = 0
KST3 161707Z 21012KT 15/01 A30 RMK A01 T01490007  RH  038%=      5-min Rain = 0
KST3 161708Z 21014KT 15/01 A30 RMK A01 T01510007  RH  037%=      5-min Rain = 0
KST3 161709Z 21013KT 15/01 A30 RMK A01 T01500006  RH  037%=      5-min Rain = 0
KST3 161710Z 21016KT 15/01 A30 RMK A01 T01510005  RH  037%=      5-min Rain = 0
KST3 161711Z 22014KT 15/01 A30 RMK A01 T01520005  RH  037%=      5-min Rain = 0
KST3 161712Z 22016KT 15/00 A30 RMK A01 T01530004  RH  036%=      5-min Rain = 0
KST3 161713Z 21016KT 16/00 A30 RMK A01 T01550004  RH  036%=      5-min Rain = 0
KST3 161714Z 22016KT 16/00 A30 RMK A01 T01550004  RH  036%=      5-min Rain = 0
KST3 161715Z 22017KT 16/00 A30 RMK A01 T01550003  RH  035%=      5-min Rain = 0
KST3 161716Z 22015KT 16/00 A30 RMK A01 T01550001  RH  035%=      5-min Rain = 0
KST3 161717Z 21014KT 16/00 A30 RMK A01 T01560003  RH  035%=      5-min Rain = 0
KST3 161718Z 22015KT 16/00 A30 RMK A01 T01580004  RH  035%=      5-min Rain = 0
KST3 161719Z 22015KT 16/00 A30 RMK A01 T01580003  RH  035%=      5-min Rain = 0
KST3 161720Z 21013KT 16/01 A30 RMK A01 T01590005  RH  035%=      5-min Rain = 0
KST3 161721Z 21013KT 16/00 A30 RMK A01 T01610004  RH  034%=      5-min Rain = 0
KST3 161722Z 22014KT 16/00 A30 RMK A01 T01610003  RH  034%=      5-min Rain = 0
KST3 161723Z 21016KT 16/00 A30 RMK A01 T01610003  RH  034%=      5-min Rain = 0
KST3 161724Z 21013KT 16/00 A30 RMK A01 T01590002  RH  034%=      5-min Rain = 0
KST3 161725Z 22013KT 16/00 A30 RMK A01 T01610004  RH  034%=      5-min Rain = 0
KST3 161726Z 21013KT 16/00 A30 RMK A01 T01620003  RH  034%=      5-min Rain = 0
KST3 161727Z 21012KT 16/00 A30 RMK A01 T01620003  RH  034%=      5-min Rain = 0
KST3 161728Z 22015KT 16/00 A30 RMK A01 T01620002  RH  034%=      5-min Rain = 0
KST3 161729Z 21015KT 16/00 A30 RMK A01 T01620002  RH  034%=      5-min Rain = 0
KST3 161730Z 21015KT 16/00 A30 RMK A01 T01630001  RH  033%=      5-min Rain = 0
KST3 161731Z 21013KT 16/00 A30 RMK A01 T01620001  RH  033%=      5-min Rain = 0
KST3 161732Z 22013KT 16/00 A30 RMK A01 T01620002  RH  034%=      5-min Rain = 0
KST3 161733Z 22015KT 16/00 A30 RMK A01 T01640003  RH  034%=      5-min Rain = 0
KST3 161734Z 22017KT 16/00 A30 RMK A01 T01640000  RH  033%=      5-min Rain = 0
KST3 161735Z 22013KT 16/M00 A30 RMK A01 T01631001  RH  033%=      5-min Rain = 0
KST3 161736Z 22014KT 16/00 A2999 RMK A01 T01640002  RH  033%=      5-min Rain = 0
KST3 161737Z 21015KT 17/00 A2999 RMK A01 T01660002  RH  033%=      5-min Rain = 0
KST3 161738Z 21013KT 17/00 A2999 RMK A01 T01660001  RH  032%=      5-min Rain = 0
KST3 161739Z 21012KT 17/00 A2999 RMK A01 T01670002  RH  033%=      5-min Rain = 0
KST3 161740Z 21011KT 17/00 A2999 RMK A01 T01680003  RH  033%=      5-min Rain = 0
KST3 161741Z 22014KT 17/00 A2999 RMK A01 T01700004  RH  033%=      5-min Rain = 0
KST3 161742Z 22014KT 17/00 A2999 RMK A01 T01710003  RH  032%=      5-min Rain = 0
KST3 161743Z 23015KT 17/00 A2999 RMK A01 T01710002  RH  032%=      5-min Rain = 0
KST3 161744Z 22014KT 17/00 A2999 RMK A01 T01700003  RH  032%=      5-min Rain = 0
KST3 161745Z 23014KT 17/00 A2999 RMK A01 T01700003  RH  032%=      5-min Rain = 0
KST3 161746Z 22015KT 17/00 A2999 RMK A01 T01700002  RH  032%=      5-min Rain = 0
KST3 161747Z 21013KT 17/00 A2999 RMK A01 T01680002  RH  032%=      5-min Rain = 0
KST3 161748Z 20013KT 17/00 A2999 RMK A01 T01680003  RH  033%=      5-min Rain = 0
KST3 161749Z 22014KT 17/00 A2999 RMK A01 T01680002  RH  032%=      5-min Rain = 0
KST3 161750Z 22010KT 17/00 A2999 RMK A01 T01670002  RH  033%=      5-min Rain = 0
KST3 161751Z 21011G16KT 17/00 A2999 RMK A01 T01690004  RH  033%=      5-min Rain = 0
KST3 161752Z 21014KT 17/00 A2999 RMK A01 T01690002  RH  032%=      5-min Rain = 0
KST3 161753Z 21012KT 17/00 A2999 RMK A01 T01700002  RH  032%=      5-min Rain = 0
KST3 161754Z 21012KT 17/00 A2999 RMK A01 T01700001  RH  032%=      5-min Rain = 0
KST3 161755Z 21014KT 17/00 A2999 RMK A01 T01700002  RH  032%=      5-min Rain = 0
KST3 161756Z 21013KT 17/00 A2999 RMK A01 T01720000  RH  031%=      5-min Rain = 0
KST3 161757Z 21013KT 17/00 A2999 RMK A01 T017300-0  RH  031%=      5-min Rain = 0
KST3 161758Z 22013KT 17/00 A2998 RMK A01 T01740000  RH  031%=      5-min Rain = 0
KST3 161759Z 21014KT 18/00 A2998 RMK A01 T01770002  RH  031%=      5-min Rain = 0
KST3 161800Z 20016KT 18/M00 A2998 RMK A01 T01801001  RH  029%=      5-min Rain = 0
KST3 161801Z 21015KT 18/M00 A2998 RMK A01 T01801003  RH  029%=      5-min Rain = 0
KST3 161802Z 21012KT 18/M01 A2998 RMK A01 T01811007  RH  028%=      5-min Rain = 0
KST3 161803Z 20014KT 18/M01 A2998 RMK A01 T01811006  RH  028%=      5-min Rain = 0
KST3 161804Z 21016KT 18/M00 A2998 RMK A01 T01831004  RH  028%=      5-min Rain = 0
KST3 161805Z 21016G21KT 19/M00 A2998 RMK A01 T01851004  RH  028%=      5-min Rain = 0
KST3 161806Z 21017KT 19/M01 A2998 RMK A01 T01871008  RH  027%=      5-min Rain = 0
KST3 161807Z 21015G20KT 19/M01 A2997 RMK A01 T01871009  RH  027%=      5-min Rain = 0
KST3 161808Z 21019KT 19/M01 A2997 RMK A01 T01861008  RH  027%=      5-min Rain = 0
KST3 161809Z 21018KT 19/M01 A2997 RMK A01 T01871009  RH  027%=      5-min Rain = 0
KST3 161810Z 21017G22KT 19/M01 A2997 RMK A01 T01871011  RH  026%=      5-min Rain = 0
KST3 161811Z 21020KT 19/M01 A2997 RMK A01 T01871012  RH  026%=      5-min Rain = 0
KST3 161812Z 21019KT 19/M01 A2997 RMK A01 T01871014  RH  026%=      5-min Rain = 0
KST3 161813Z 21018KT 19/M01 A2997 RMK A01 T01881014  RH  025%=      5-min Rain = 0
KST3 161814Z 21019KT 19/M02 A2997 RMK A01 T01871016  RH  025%=      5-min Rain = 0
KST3 161815Z 21019KT 19/M01 A2997 RMK A01 T01861014  RH  026%=      5-min Rain = 0
KST3 161816Z 21015KT 19/M01 A2997 RMK A01 T01871012  RH  026%=      5-min Rain = 0
KST3 161817Z 20017KT 19/M01 A2997 RMK A01 T01881010  RH  026%=      5-min Rain = 0
KST3 161818Z 21015KT 19/M01 A2997 RMK A01 T01891008  RH  026%=      5-min Rain = 0
KST3 161819Z 22018KT 19/M01 A2997 RMK A01 T01911009  RH  026%=      5-min Rain = 0
KST3 161820Z 22016KT 19/M01 A2997 RMK A01 T01901014  RH  025%=      5-min Rain = 0
KST3 161821Z 22015KT 19/M01 A2997 RMK A01 T01891011  RH  026%=      5-min Rain = 0
KST3 161822Z 22017KT 19/M01 A2997 RMK A01 T01921007  RH  026%=      5-min Rain = 0
KST3 161823Z 22017KT 19/M01 A2997 RMK A01 T01931011  RH  025%=      5-min Rain = 0
KST3 161824Z 22018KT 19/M01 A2997 RMK A01 T01891013  RH  025%=      5-min Rain = 0
KST3 161825Z 21016KT 19/M01 A2997 RMK A01 T01881013  RH  026%=      5-min Rain = 0
KST3 161826Z 22016G21KT 19/M01 A2997 RMK A01 T01881010  RH  026%=      5-min Rain = 0
KST3 161827Z 22018KT 19/M01 A2997 RMK A01 T01901012  RH  026%=      5-min Rain = 0
KST3 161828Z 23018KT 19/M01 A2996 RMK A01 T01901012  RH  025%=      5-min Rain = 0
KST3 161829Z 23015KT 19/M01 A2996 RMK A01 T01901012  RH  026%=      5-min Rain = 0
KST3 161830Z 22017KT 19/M01 A2996 RMK A01 T01901011  RH  026%=      5-min Rain = 0
KST3 161831Z 23015KT 19/M01 A2996 RMK A01 T01901012  RH  025%=      5-min Rain = 0
KST3 161832Z 24014KT 19/M01 A2996 RMK A01 T01891012  RH  026%=      5-min Rain = 0
KST3 161833Z 23015KT 19/M01 A2996 RMK A01 T01921009  RH  026%=      5-min Rain = 0
KST3 161834Z 23015KT 19/M01 A2996 RMK A01 T01931010  RH  025%=      5-min Rain = 0
KST3 161835Z 23016KT 19/M01 A2996 RMK A01 T01921011  RH  025%=      5-min Rain = 0
KST3 161836Z 22015KT 19/M01 A2996 RMK A01 T01911011  RH  026%=      5-min Rain = 0
KST3 161837Z 22015KT 19/M01 A2996 RMK A01 T01901010  RH  026%=      5-min Rain = 0
KST3 161838Z 22014KT 19/M01 A2996 RMK A01 T01901010  RH  026%=      5-min Rain = 0
KST3 161839Z 21011KT 19/M01 A2996 RMK A01 T01941005  RH  026%=      5-min Rain = 0
KST3 161840Z 22012KT 20/M01 A2995 RMK A01 T01981005  RH  025%=      5-min Rain = 0
KST3 161841Z 22013KT 20/M01 A2995 RMK A01 T02001007  RH  025%=      5-min Rain = 0
KST3 161842Z 22016KT 20/M01 A2995 RMK A01 T02001009  RH  024%=      5-min Rain = 0
KST3 161843Z 23016KT 20/M01 A2995 RMK A01 T01981010  RH  025%=      5-min Rain = 0
KST3 161844Z 22017KT 20/M01 A2995 RMK A01 T01971010  RH  025%=      5-min Rain = 0
KST3 161845Z 20013KT 20/M01 A2995 RMK A01 T01961010  RH  025%=      5-min Rain = 0
KST3 161846Z 20012KT 20/M01 A2995 RMK A01 T01971008  RH  025%=      5-min Rain = 0
KST3 161847Z 20014KT 20/M01 A2995 RMK A01 T01981008  RH  025%=      5-min Rain = 0
KST3 161848Z 20013KT 20/M01 A2995 RMK A01 T01971010  RH  025%=      5-min Rain = 0
KST3 161849Z 21015KT 20/M01 A2995 RMK A01 T01961010  RH  025%=      5-min Rain = 0
KST3 161850Z 21014KT 20/M01 A2995 RMK A01 T01961009  RH  025%=      5-min Rain = 0
KST3 161851Z 22016KT 20/M01 A2995 RMK A01 T01971009  RH  025%=      5-min Rain = 0
KST3 161852Z 21018KT 20/M01 A2995 RMK A01 T01971012  RH  024%=      5-min Rain = 0
KST3 161853Z 21015KT 20/M01 A2995 RMK A01 T01971012  RH  025%=      5-min Rain = 0
KST3 161854Z 22014G19KT 20/M01 A2995 RMK A01 T01971010  RH  025%=      5-min Rain = 0
KST3 161855Z 22017KT 20/M01 A2994 RMK A01 T01971011  RH  025%=      5-min Rain = 0
KST3 161856Z 22015KT 20/M01 A2994 RMK A01 T01971012  RH  024%=      5-min Rain = 0
KST3 161857Z 21016KT 20/M01 A2994 RMK A01 T01971013  RH  024%=      5-min Rain = 0
KST3 161858Z 21014KT 20/M01 A2994 RMK A01 T01981012  RH  024%=      5-min Rain = 0
KST3 161859Z 22011KT 20/M01 A2994 RMK A01 T01981011  RH  024%=      5-min Rain = 0
KST3 161900Z 23014KT 20/M01 A2994 RMK A01 T01991010  RH  024%=      5-min Rain = 0
KST3 161901Z 22012KT 20/M01 A2994 RMK A01 T02001012  RH  024%=      5-min Rain = 0
KST3 161902Z 19012KT 20/M01 A2994 RMK A01 T02001012  RH  024%=      5-min Rain = 0
KST3 161903Z 21014KT 20/M01 A2994 RMK A01 T02011013  RH  024%=      5-min Rain = 0
KST3 161904Z 21014KT 20/M01 A2994 RMK A01 T02031013  RH  023%=      5-min Rain = 0
KST3 161905Z 21013KT 20/M01 A2994 RMK A01 T02031014  RH  023%=      5-min Rain = 0
KST3 161906Z 22014KT 20/M01 A2994 RMK A01 T02031014  RH  023%=      5-min Rain = 0
KST3 161907Z 22015KT 20/M02 A2994 RMK A01 T02041015  RH  023%=      5-min Rain = 0
KST3 161908Z 21014KT 20/M02 A2994 RMK A01 T02041015  RH  023%=      5-min Rain = 0
KST3 161909Z 21013KT 21/M01 A2994 RMK A01 T02051013  RH  023%=      5-min Rain = 0
KST3 161910Z 20011KT 21/M01 A2994 RMK A01 T02061013  RH  023%=      5-min Rain = 0
KST3 161911Z 21015G20KT 21/M01 A2994 RMK A01 T02071012  RH  023%=      5-min Rain = 0
KST3 161912Z 20014KT 21/M01 A2994 RMK A01 T02061014  RH  023%=      5-min Rain = 0
KST3 161913Z 21015KT 21/M01 A2994 RMK A01 T02061013  RH  023%=      5-min Rain = 0
KST3 161914Z 21013KT 21/M01 A2994 RMK A01 T02061013  RH  023%=      5-min Rain = 0
KST3 161915Z 22012KT 21/M01 A2994 RMK A01 T02071013  RH  023%=      5-min Rain = 0
KST3 161916Z 21014KT 21/M01 A2994 RMK A01 T02081012  RH  023%=      5-min Rain = 0
KST3 161917Z 21012KT 21/M01 A2994 RMK A01 T02081013  RH  023%=      5-min Rain = 0
KST3 161918Z 21013KT 21/M01 A2994 RMK A01 T02081011  RH  023%=      5-min Rain = 0
KST3 161919Z 21011KT 21/M01 A2994 RMK A01 T02101009  RH  023%=      5-min Rain = 0
KST3 161920Z 21012KT 21/M01 A2994 RMK A01 T02121009  RH  023%=      5-min Rain = 0
KST3 161921Z 22012G17KT 21/M01 A2994 RMK A01 T02131009  RH  023%=      5-min Rain = 0
KST3 161922Z 22014KT 22/M01 A2994 RMK A01 T02151008  RH  022%=      5-min Rain = 0
KST3 161923Z 21012KT 21/M01 A2994 RMK A01 T02121013  RH  022%=      5-min Rain = 0
KST3 161924Z 22013KT 21/M01 A2993 RMK A01 T02091011  RH  023%=      5-min Rain = 0
KST3 161925Z 21012KT 21/M01 A2993 RMK A01 T02091010  RH  023%=      5-min Rain = 0
KST3 161926Z 22013KT 21/M01 A2993 RMK A01 T02091011  RH  023%=      5-min Rain = 0
KST3 161927Z 20010KT 21/M01 A2993 RMK A01 T02091010  RH  023%=      5-min Rain = 0
KST3 161928Z 20011KT 21/M01 A2993 RMK A01 T02101010  RH  023%=      5-min Rain = 0
KST3 161929Z 21012KT 21/M01 A2993 RMK A01 T02101010  RH  023%=      5-min Rain = 0
KST3 161930Z 20014KT 21/M01 A2993 RMK A01 T02121010  RH  023%=      5-min Rain = 0
KST3 161931Z 22016KT 21/M01 A2993 RMK A01 T02111010  RH  023%=      5-min Rain = 0
KST3 161932Z 22017KT 21/M01 A2993 RMK A01 T02101010  RH  023%=      5-min Rain = 0
KST3 161933Z 21015KT 21/M01 A2993 RMK A01 T02081011  RH  023%=      5-min Rain = 0
KST3 161934Z 21013KT 21/M01 A2993 RMK A01 T02071010  RH  023%=      5-min Rain = 0
KST3 161935Z 21018KT 21/M01 A2992 RMK A01 T02071010  RH  023%=      5-min Rain = 0
KST3 161936Z 20015KT 21/M01 A2992 RMK A01 T02071010  RH  023%=      5-min Rain = 0
KST3 161937Z 19016KT 21/M01 A2992 RMK A01 T02061009  RH  024%=      5-min Rain = 0
KST3 161938Z 20013G18KT 21/M01 A2992 RMK A01 T02061008  RH  024%=      5-min Rain = 0
KST3 161939Z 20016KT 21/M01 A2992 RMK A01 T02091007  RH  024%=      5-min Rain = 0
KST3 161940Z 21014KT 21/M01 A2992 RMK A01 T02101008  RH  023%=      5-min Rain = 0
KST3 161941Z 22017KT 21/M01 A2992 RMK A01 T02121006  RH  023%=      5-min Rain = 0
KST3 161942Z 21015KT 21/M01 A2992 RMK A01 T02131008  RH  023%=      5-min Rain = 0
KST3 161943Z 21017KT 21/M01 A2992 RMK A01 T02141007  RH  023%=      5-min Rain = 0
KST3 161944Z 21013KT 21/M01 A2992 RMK A01 T02141006  RH  023%=      5-min Rain = 0
KST3 161945Z 21016KT 21/M01 A2992 RMK A01 T02141006  RH  023%=      5-min Rain = 0
KST3 161946Z 21017KT 21/M01 A2992 RMK A01 T02121007  RH  023%=      5-min Rain = 0
KST3 161947Z 20018KT 21/M01 A2992 RMK A01 T02111006  RH  023%=      5-min Rain = 0
KST3 161948Z 21015KT 21/M01 A2992 RMK A01 T02101006  RH  023%=      5-min Rain = 0
KST3 161949Z 21013G18KT 21/M01 A2992 RMK A01 T02101005  RH  024%=      5-min Rain = 0
KST3 161950Z 21013KT 21/M00 A2992 RMK A01 T02121004  RH  024%=      5-min Rain = 0
KST3 161951Z 20013G18KT 21/M00 A2992 RMK A01 T02141002  RH  024%=      5-min Rain = 0
KST3 161952Z 21016KT 22/M00 A2992 RMK A01 T02161004  RH  023%=      5-min Rain = 0
KST3 161953Z 21017KT 22/M01 A2992 RMK A01 T02151005  RH  023%=      5-min Rain = 0
KST3 161954Z 21015KT 21/M01 A2992 RMK A01 T02131006  RH  023%=      5-min Rain = 0
KST3 161955Z 20015KT 21/M01 A2992 RMK A01 T02111005  RH  023%=      5-min Rain = 0
KST3 161956Z 20013KT 21/M01 A2992 RMK A01 T02111006  RH  023%=      5-min Rain = 0
KST3 161957Z 21013KT 21/M01 A2992 RMK A01 T02111005  RH  024%=      5-min Rain = 0
KST3 161958Z 21015KT 21/M00 A2992 RMK A01 T02121004  RH  024%=      5-min Rain = 0
KST3 161959Z 21013KT 21/M00 A2992 RMK A01 T02141004  RH  023%=      5-min Rain = 0
KST3 162000Z 22012KT 21/M00 A2992 RMK A01 T02141004  RH  023%=      5-min Rain = 0
KST3 162001Z 23015KT 22/M00 A2992 RMK A01 T02151003  RH  023%=      5-min Rain = 0
KST3 162002Z 21013KT 21/M00 A2992 RMK A01 T02141003  RH  023%=      5-min Rain = 0
KST3 162003Z 21015KT 21/M00 A2992 RMK A01 T02131003  RH  024%=      5-min Rain = 0
KST3 162004Z 22013KT 21/M00 A2992 RMK A01 T02121004  RH  024%=      5-min Rain = 0
KST3 162005Z 21014KT 21/M00 A2992 RMK A01 T02111004  RH  024%=      5-min Rain = 0
KST3 162006Z 22013KT 21/M00 A2992 RMK A01 T02121004  RH  024%=      5-min Rain = 0
KST3 162007Z 22010KT 21/M01 A2992 RMK A01 T02101005  RH  024%=      5-min Rain = 0
KST3 162008Z 22013KT 21/M00 A2992 RMK A01 T02101003  RH  024%=      5-min Rain = 0
KST3 162009Z 21011KT 21/M00 A2992 RMK A01 T02111004  RH  024%=      5-min Rain = 0
KST3 162010Z 20013KT 21/M00 A2991 RMK A01 T02131004  RH  023%=      5-min Rain = 0
KST3 162011Z 20013KT 22/M01 A2991 RMK A01 T02151007  RH  023%=      5-min Rain = 0
KST3 162012Z 20010KT 22/M01 A2991 RMK A01 T02151010  RH  022%=      5-min Rain = 0
KST3 162013Z 21014KT 21/M01 A2991 RMK A01 T02141009  RH  022%=      5-min Rain = 0
KST3 162014Z 21014KT 21/M01 A2991 RMK A01 T02131009  RH  023%=      5-min Rain = 0
KST3 162015Z 21013KT 21/M01 A2991 RMK A01 T02131010  RH  022%=      5-min Rain = 0
KST3 162016Z 21013KT 21/M01 A2991 RMK A01 T02121010  RH  023%=      5-min Rain = 0
KST3 162017Z 22013KT 21/M01 A2991 RMK A01 T02121009  RH  023%=      5-min Rain = 0
KST3 162018Z 22012KT 21/M01 A2991 RMK A01 T02121008  RH  023%=      5-min Rain = 0
KST3 162019Z 23012KT 21/M01 A2991 RMK A01 T02121009  RH  023%=      5-min Rain = 0
KST3 162020Z 23013KT 21/M01 A2991 RMK A01 T02121007  RH  023%=      5-min Rain = 0
KST3 162021Z 21009G14KT 21/M01 A2991 RMK A01 T02121006  RH  023%=      5-min Rain = 0
KST3 162022Z 21011KT 21/M01 A2991 RMK A01 T02141006  RH  023%=      5-min Rain = 0
KST3 162023Z 22013KT 22/M01 A2991 RMK A01 T02151006  RH  023%=      5-min Rain = 0
KST3 162024Z 22014KT 22/M01 A2991 RMK A01 T02161008  RH  022%=      5-min Rain = 0
KST3 162025Z 22012KT 21/M01 A2991 RMK A01 T02141008  RH  023%=      5-min Rain = 0
KST3 162026Z 21010KT 21/M01 A2991 RMK A01 T02141007  RH  023%=      5-min Rain = 0
KST3 162027Z 21011KT 21/M01 A2991 RMK A01 T02141007  RH  023%=      5-min Rain = 0
KST3 162028Z 22011KT 21/M01 A2991 RMK A01 T02121010  RH  023%=      5-min Rain = 0
KST3 162029Z 22009KT 21/M01 A2991 RMK A01 T02111008  RH  023%=      5-min Rain = 0
KST3 162030Z 21012KT 21/M01 A2991 RMK A01 T02121007  RH  023%=      5-min Rain = 0
KST3 162031Z 21013KT 21/M01 A2992 RMK A01 T02121009  RH  023%=      5-min Rain = 0
KST3 162032Z 21012KT 21/M01 A2992 RMK A01 T02111009  RH  023%=      5-min Rain = 0
KST3 162033Z 21009KT 21/M01 A2992 RMK A01 T02091008  RH  023%=      5-min Rain = 0
KST3 162034Z 22014KT 21/M01 A2991 RMK A01 T02091007  RH  023%=      5-min Rain = 0
KST3 162035Z 22012KT 21/M01 A2991 RMK A01 T02081010  RH  023%=      5-min Rain = 0
KST3 162036Z 22010KT 21/M01 A2991 RMK A01 T02071009  RH  023%=      5-min Rain = 0
KST3 162037Z 21009KT 21/M01 A2991 RMK A01 T02061010  RH  024%=      5-min Rain = 0
KST3 162038Z 21011KT 21/M01 A2991 RMK A01 T02061008  RH  024%=      5-min Rain = 0
KST3 162039Z 21009KT 21/M01 A2991 RMK A01 T02071009  RH  024%=      5-min Rain = 0
KST3 162040Z 20011KT 21/M01 A2991 RMK A01 T02071008  RH  024%=      5-min Rain = 0
KST3 162041Z 20011KT 21/M01 A2991 RMK A01 T02071008  RH  024%=      5-min Rain = 0
KST3 162042Z 21010KT 21/M01 A2991 RMK A01 T02071008  RH  024%=      5-min Rain = 0
KST3 162043Z 22008KT 21/M01 A2991 RMK A01 T02071008  RH  024%=      5-min Rain = 0
KST3 162044Z 22008KT 21/M01 A2991 RMK A01 T02071007  RH  024%=      5-min Rain = 0
KST3 162045Z 22011KT 21/M01 A2991 RMK A01 T02071007  RH  024%=      5-min Rain = 0
KST3 162046Z 22010KT 21/M01 A2991 RMK A01 T02071008  RH  024%=      5-min Rain = 0
KST3 162047Z 22011KT 21/M01 A2991 RMK A01 T02061008  RH  024%=      5-min Rain = 0
KST3 162048Z 22010KT 21/M01 A2991 RMK A01 T02051009  RH  024%=      5-min Rain = 0
KST3 162049Z 23011KT 21/M01 A2991 RMK A01 T02051008  RH  024%=      5-min Rain = 0
KST3 162050Z 23011KT 21/M01 A2991 RMK A01 T02051008  RH  024%=      5-min Rain = 0
KST3 162051Z 23010KT 20/M01 A2991 RMK A01 T02041008  RH  024%=      5-min Rain = 0
KST3 162052Z 23011KT 20/M01 A2991 RMK A01 T02041008  RH  024%=      5-min Rain = 0
KST3 162053Z 22010KT 20/M01 A2991 RMK A01 T02031008  RH  024%=      5-min Rain = 0
KST3 162054Z 22010KT 20/M01 A2991 RMK A01 T02031008  RH  024%=      5-min Rain = 0
KST3 162055Z 22009KT 20/M01 A2991 RMK A01 T02031008  RH  024%=      5-min Rain = 0
KST3 162056Z 23010KT 20/M01 A2991 RMK A01 T02031007  RH  024%=      5-min Rain = 0
KST3 162057Z 23010KT 20/M01 A2991 RMK A01 T02031008  RH  024%=      5-min Rain = 0
KST3 162058Z 23011KT 20/M01 A2991 RMK A01 T02031008  RH  024%=      5-min Rain = 0
KST3 162059Z 23011KT 20/M01 A2991 RMK A01 T02031008  RH  024%=      5-min Rain = 0
KST3 162100Z 23009KT 20/M01 A2991 RMK A01 T02031008  RH  024%=      5-min Rain = 0
KST3 162101Z 23009KT 20/M01 A2991 RMK A01 T02031006  RH  024%=      5-min Rain = 0
KST3 162102Z 23009KT 20/M01 A2991 RMK A01 T02041005  RH  025%=      5-min Rain = 0
KST3 162103Z 23009KT 20/M01 A2991 RMK A01 T02041007  RH  024%=      5-min Rain = 0
KST3 162104Z 22009KT 20/M01 A2991 RMK A01 T02041006  RH  024%=      5-min Rain = 0
KST3 162105Z 22008KT 20/M01 A2991 RMK A01 T02041006  RH  024%=      5-min Rain = 0
KST3 162106Z 22009KT 20/M01 A2991 RMK A01 T02041006  RH  024%=      5-min Rain = 0
KST3 162107Z 22007KT 20/M01 A2991 RMK A01 T02041006  RH  024%=      5-min Rain = 0
KST3 162108Z 23007KT 20/M01 A2991 RMK A01 T02041006  RH  024%=      5-min Rain = 0
KST3 162109Z 23007KT 20/M01 A2991 RMK A01 T02041005  RH  025%=      5-min Rain = 0
KST3 162110Z 22008KT 20/M01 A2991 RMK A01 T02041005  RH  025%=      5-min Rain = 0
KST3 162111Z 22007KT 20/M01 A2991 RMK A01 T02041005  RH  025%=      5-min Rain = 0
KST3 162112Z 22008KT 20/M01 A2991 RMK A01 T02041005  RH  025%=      5-min Rain = 0
KST3 162113Z 21008KT 20/M01 A2991 RMK A01 T02041006  RH  024%=      5-min Rain = 0
KST3 162114Z 22008KT 20/M01 A2991 RMK A01 T02041006  RH  024%=      5-min Rain = 0
KST3 162115Z 22008KT 20/M01 A299 RMK A01 T02041006  RH  024%=      5-min Rain = 0
KST3 162116Z 22010KT 20/M01 A299 RMK A01 T02041006  RH  024%=      5-min Rain = 0
KST3 162117Z 22009KT 20/M01 A299 RMK A01 T02041006  RH  024%=      5-min Rain = 0
KST3 162118Z 23008KT 20/M01 A299 RMK A01 T02041006  RH  025%=      5-min Rain = 0
KST3 162119Z 22007KT 20/M01 A299 RMK A01 T02031005  RH  025%=      5-min Rain = 0
KST3 162120Z 22010KT 20/M01 A299 RMK A01 T02041005  RH  025%=      5-min Rain = 0
KST3 162121Z 22009KT 20/M01 A299 RMK A01 T02031006  RH  025%=      5-min Rain = 0
KST3 162122Z 22008KT 20/M01 A299 RMK A01 T02031005  RH  025%=      5-min Rain = 0
KST3 162123Z 22008KT 20/M01 A299 RMK A01 T02031006  RH  025%=      5-min Rain = 0
KST3 162124Z 21007KT 20/M00 A2991 RMK A01 T02031004  RH  025%=      5-min Rain = 0
KST3 162125Z 21008KT 20/M00 A2991 RMK A01 T02041003  RH  025%=      5-min Rain = 0
KST3 162126Z 21009KT 20/M00 A2991 RMK A01 T02041004  RH  025%=      5-min Rain = 0
KST3 162127Z 22010KT 20/M00 A2991 RMK A01 T02041004  RH  025%=      5-min Rain = 0
KST3 162128Z 22009KT 20/M00 A2991 RMK A01 T02041004  RH  025%=      5-min Rain = 0
KST3 162129Z 22009KT 20/M00 A2991 RMK A01 T02041004  RH  025%=      5-min Rain = 0
KST3 162130Z 22009KT 20/M00 A2991 RMK A01 T02031003  RH  025%=      5-min Rain = 0
KST3 162131Z 22008KT 20/M00 A2991 RMK A01 T02031003  RH  025%=      5-min Rain = 0
KST3 162132Z 22010KT 20/M00 A2991 RMK A01 T02031003  RH  025%=      5-min Rain = 0
KST3 162133Z 23009KT 20/M00 A2991 RMK A01 T02031004  RH  025%=      5-min Rain = 0
KST3 162134Z 22009KT 20/M00 A2991 RMK A01 T02031004  RH  025%=      5-min Rain = 0
KST3 162135Z 22009KT 20/M00 A2991 RMK A01 T02031003  RH  025%=      5-min Rain = 0
KST3 162136Z 22008KT 20/M00 A2991 RMK A01 T02031003  RH  025%=      5-min Rain = 0
KST3 162137Z 22008KT 20/M00 A2991 RMK A01 T02031002  RH  025%=      5-min Rain = 0
KST3 162138Z 21009KT 20/M00 A2991 RMK A01 T02031002  RH  025%=      5-min Rain = 0
KST3 162139Z 22008KT 20/M00 A2991 RMK A01 T02031003  RH  025%=      5-min Rain = 0
KST3 162140Z 22007KT 20/M00 A2991 RMK A01 T02031002  RH  025%=      5-min Rain = 0
KST3 162141Z 22008KT 20/M00 A2991 RMK A01 T02031002  RH  025%=      5-min Rain = 0
KST3 162142Z 22011KT 20/M00 A2991 RMK A01 T02031002  RH  025%=      5-min Rain = 0
KST3 162143Z 21008KT 20/M00 A2991 RMK A01 T02031003  RH  025%=      5-min Rain = 0
KST3 162144Z 21009KT 20/M00 A2991 RMK A01 T02031002  RH  025%=      5-min Rain = 0
KST3 162145Z 21009KT 20/M00 A2991 RMK A01 T02031001  RH  025%=      5-min Rain = 0
KST3 162146Z 22009KT 20/M00 A2991 RMK A01 T02031001  RH  025%=      5-min Rain = 0
KST3 162147Z 21008KT 20/M00 A2991 RMK A01 T02031002  RH  025%=      5-min Rain = 0
KST3 162148Z 22007KT 20/M00 A2991 RMK A01 T02031001  RH  026%=      5-min Rain = 0
KST3 162149Z 22008KT 20/00 A2991 RMK A01 T020200-0  RH  026%=      5-min Rain = 0
KST3 162150Z 22008KT 20/M00 A2991 RMK A01 T02021001  RH  026%=      5-min Rain = 0
KST3 162151Z 22008KT 20/M00 A2991 RMK A01 T02021002  RH  025%=      5-min Rain = 0
KST3 162152Z 22008KT 20/M00 A2991 RMK A01 T02021002  RH  025%=      5-min Rain = 0
KST3 162153Z 22007KT 20/M00 A2991 RMK A01 T02021001  RH  026%=      5-min Rain = 0
KST3 162154Z 22005KT 20/00 A2991 RMK A01 T02020000  RH  026%=      5-min Rain = 0
KST3 162155Z 22006KT 20/00 A2991 RMK A01 T02020001  RH  026%=      5-min Rain = 0
KST3 162156Z 22006KT 20/00 A299 RMK A01 T02020001  RH  026%=      5-min Rain = 0
KST3 162157Z 22006KT 20/00 A299 RMK A01 T02020001  RH  026%=      5-min Rain = 0
KST3 162158Z 22008KT 20/00 A299 RMK A01 T02020000  RH  026%=      5-min Rain = 0
KST3 162159Z 23007KT 20/M00 A299 RMK A01 T02021002  RH  026%=      5-min Rain = 0
KST3 162200Z 23007KT 20/M00 A2991 RMK A01 T02021002  RH  026%=      5-min Rain = 0
KST3 162201Z 23006KT 20/M00 A2991 RMK A01 T02021001  RH  026%=      5-min Rain = 0
KST3 162202Z 23007KT 20/00 A2991 RMK A01 T02020001  RH  026%=      5-min Rain = 0
KST3 162203Z 23007KT 20/00 A2991 RMK A01 T02020001  RH  026%=      5-min Rain = 0
KST3 162204Z 23007KT 20/M00 A2991 RMK A01 T02021001  RH  026%=      5-min Rain = 0
KST3 162205Z 23006KT 20/M00 A2991 RMK A01 T02011002  RH  026%=      5-min Rain = 0
KST3 162206Z 22005KT 20/00 A2991 RMK A01 T02010000  RH  026%=      5-min Rain = 0
KST3 162207Z 22005KT 20/00 A2991 RMK A01 T02010001  RH  026%=      5-min Rain = 0
KST3 162208Z 22006KT 20/00 A2991 RMK A01 T02010001  RH  026%=      5-min Rain = 0
KST3 162209Z 22005KT 20/00 A2991 RMK A01 T02000000  RH  026%=      5-min Rain = 0
KST3 162210Z 22005KT 20/00 A2991 RMK A01 T02000001  RH  026%=      5-min Rain = 0
KST3 162211Z 22005KT 20/00 A2991 RMK A01 T02000001  RH  026%=      5-min Rain = 0
KST3 162212Z 22005KT 20/00 A2991 RMK A01 T02000002  RH  026%=      5-min Rain = 0
KST3 162213Z 22005KT 20/00 A2991 RMK A01 T02000002  RH  027%=      5-min Rain = 0
KST3 162214Z 22005KT 20/00 A2991 RMK A01 T01990002  RH  027%=      5-min Rain = 0
KST3 162215Z 23005KT 20/00 A2991 RMK A01 T01990002  RH  027%=      5-min Rain = 0
KST3 162216Z 22005KT 20/00 A2991 RMK A01 T01990002  RH  027%=      5-min Rain = 0
KST3 162217Z 22005KT 20/00 A2991 RMK A01 T01990002  RH  027%=      5-min Rain = 0
KST3 162218Z 22005KT 20/00 A2991 RMK A01 T01990002  RH  027%=      5-min Rain = 0
KST3 162219Z 22005KT 20/00 A2991 RMK A01 T01990003  RH  027%=      5-min Rain = 0
KST3 162220Z 22005KT 20/00 A2991 RMK A01 T01990003  RH  027%=      5-min Rain = 0
KST3 162221Z 22005KT 20/00 A2991 RMK A01 T01990003  RH  027%=      5-min Rain = 0
KST3 162222Z 22004KT 20/00 A2991 RMK A01 T01990003  RH  027%=      5-min Rain = 0
KST3 162223Z 22004KT 20/00 A2991 RMK A01 T01980003  RH  027%=      5-min Rain = 0
KST3 162224Z 22004KT 20/00 A2991 RMK A01 T01980003  RH  027%=      5-min Rain = 0
KST3 162225Z 22004KT 20/00 A2991 RMK A01 T01980003  RH  027%=      5-min Rain = 0
KST3 162226Z 22004KT 20/00 A2991 RMK A01 T01980004  RH  027%=      5-min Rain = 0
KST3 162227Z 22003KT 20/00 A2991 RMK A01 T01980004  RH  027%=      5-min Rain = 0
KST3 162228Z 23003KT 20/01 A2991 RMK A01 T01980005  RH  027%=      5-min Rain = 0
KST3 162229Z 23003KT 20/01 A2991 RMK A01 T01980006  RH  028%=      5-min Rain = 0
KST3 162230Z 23003KT 20/01 A2991 RMK A01 T01980006  RH  028%=      5-min Rain = 0
KST3 162231Z 23003KT 20/01 A2991 RMK A01 T01970006  RH  028%=      5-min Rain = 0
KST3 162232Z 23003KT 20/01 A2991 RMK A01 T01970006  RH  028%=      5-min Rain = 0
KST3 162233Z 22002KT 20/01 A2991 RMK A01 T01970006  RH  028%=      5-min Rain = 0
KST3 162234Z 22002KT 20/01 A2991 RMK A01 T01960006  RH  028%=      5-min Rain = 0
KST3 162235Z 21002KT 20/01 A2991 RMK A01 T01960007  RH  028%=      5-min Rain = 0
KST3 162236Z 20002KT 20/01 A2991 RMK A01 T01950006  RH  028%=      5-min Rain = 0
KST3 162237Z 20002KT 20/01 A2991 RMK A01 T01950007  RH  028%=      5-min Rain = 0
KST3 162238Z 20002KT 20/01 A2991 RMK A01 T01950006  RH  028%=      5-min Rain = 0
KST3 162239Z 20002KT 19/01 A2991 RMK A01 T01940006  RH  028%=      5-min Rain = 0
KST3 162240Z 20002KT 19/01 A2991 RMK A01 T01940006  RH  028%=      5-min Rain = 0
KST3 162241Z 20002KT 19/01 A2991 RMK A01 T01940006  RH  028%=      5-min Rain = 0
KST3 162242Z 20002KT 19/01 A2991 RMK A01 T01930006  RH  028%=      5-min Rain = 0
KST3 162243Z 20002KT 19/01 A2991 RMK A01 T01930005  RH  028%=      5-min Rain = 0
KST3 162244Z 20002KT 19/01 A2991 RMK A01 T01930005  RH  028%=      5-min Rain = 0
KST3 162245Z 20002KT 19/01 A2991 RMK A01 T01930005  RH  028%=      5-min Rain = 0
KST3 162246Z 20002KT 19/01 A2991 RMK A01 T01930005  RH  028%=      5-min Rain = 0
KST3 162247Z 20002KT 19/00 A2991 RMK A01 T01930004  RH  028%=      5-min Rain = 0
KST3 162248Z 20002KT 19/00 A2991 RMK A01 T01930004  RH  028%=      5-min Rain = 0
KST3 162249Z 20002KT 19/00 A2991 RMK A01 T01930004  RH  028%=      5-min Rain = 0
KST3 162250Z 20002KT 19/00 A2991 RMK A01 T01930004  RH  028%=      5-min Rain = 0
KST3 162251Z 20002KT 19/00 A2991 RMK A01 T01930004  RH  028%=      5-min Rain = 0
KST3 162252Z 20002KT 19/00 A2991 RMK A01 T01920004  RH  028%=      5-min Rain = 0
KST3 162253Z 20002KT 19/00 A2991 RMK A01 T01920004  RH  028%=      5-min Rain = 0
KST3 162254Z 20002KT 19/00 A2991 RMK A01 T01930004  RH  028%=      5-min Rain = 0
KST3 162255Z 20002KT 19/00 A2991 RMK A01 T01920004  RH  028%=      5-min Rain = 0
KST3 162256Z 20002KT 19/00 A2991 RMK A01 T01920004  RH  028%=      5-min Rain = 0
KST3 162257Z 20001KT 19/00 A2991 RMK A01 T01920004  RH  028%=      5-min Rain = 0
KST3 162258Z 20001KT 19/00 A2991 RMK A01 T01920003  RH  028%=      5-min Rain = 0
KST3 162259Z 20001KT 19/00 A2991 RMK A01 T01920003  RH  028%=      5-min Rain = 0
KST3 162300Z 20001KT 19/00 A2991 RMK A01 T01910003  RH  028%=      5-min Rain = 0
KST3 162301Z 20001KT 19/00 A2991 RMK A01 T01910003  RH  028%=      5-min Rain = 0
KST3 162302Z 20001KT 19/00 A2991 RMK A01 T01910003  RH  028%=      5-min Rain = 0
KST3 162303Z 20001KT 19/00 A2991 RMK A01 T01900004  RH  028%=      5-min Rain = 0
KST3 162304Z 20000KT 19/01 A2991 RMK A01 T01900005  RH  029%=      5-min Rain = 0
KST3 162305Z 00000KT 19/01 A2991 RMK A01 T01890005  RH  029%=      5-min Rain = 0
KST3 162306Z 00000KT 19/01 A2991 RMK A01 T01880005  RH  029%=      5-min Rain = 0
KST3 162307Z 00000KT 19/00 A2991 RMK A01 T01870004  RH  029%=      5-min Rain = 0
KST3 162308Z 00000KT 19/01 A2991 RMK A01 T01860005  RH  029%=      5-min Rain = 0
KST3 162309Z 00000KT 19/01 A2991 RMK A01 T01860005  RH  030%=      5-min Rain = 0
KST3 162310Z 00000KT 19/01 A2991 RMK A01 T01850005  RH  030%=      5-min Rain = 0
KST3 162311Z 32000KT 19/01 A2991 RMK A01 T01850005  RH  030%=      5-min Rain = 0
KST3 162312Z 34001KT 18/01 A2991 RMK A01 T01840005  RH  030%=      5-min Rain = 0
KST3 162313Z 35001KT 18/01 A2991 RMK A01 T01840006  RH  030%=      5-min Rain = 0
KST3 162314Z 35001KT 18/01 A2991 RMK A01 T01830006  RH  030%=      5-min Rain = 0
KST3 162315Z 35001KT 18/01 A2991 RMK A01 T01830007  RH  031%=      5-min Rain = 0
KST3 162316Z 35001KT 18/01 A2991 RMK A01 T01820008  RH  031%=      5-min Rain = 0
KST3 162317Z 02001KT 18/01 A2991 RMK A01 T01810008  RH  031%=      5-min Rain = 0
KST3 162318Z 08003KT 18/01 A2992 RMK A01 T01800009  RH  032%=      5-min Rain = 0
KST3 162319Z 10006KT 18/01 A2992 RMK A01 T01790008  RH  032%=      5-min Rain = 0
KST3 162320Z 11006KT 18/01 A2992 RMK A01 T01770009  RH  032%=      5-min Rain = 0
KST3 162321Z 13004KT 17/01 A2992 RMK A01 T01730007  RH  033%=      5-min Rain = 0
KST3 162322Z 14005KT 17/01 A2992 RMK A01 T01710007  RH  033%=      5-min Rain = 0
KST3 162323Z 15005KT 17/01 A2992 RMK A01 T01700006  RH  033%=      5-min Rain = 0
KST3 162324Z 15006KT 17/01 A2992 RMK A01 T01690007  RH  033%=      5-min Rain = 0
KST3 162325Z 15006KT 17/01 A2992 RMK A01 T01700007  RH  033%=      5-min Rain = 0
KST3 162326Z 15006KT 17/01 A2992 RMK A01 T01690008  RH  034%=      5-min Rain = 0
KST3 162327Z 15006KT 17/01 A2992 RMK A01 T01670008  RH  034%=      5-min Rain = 0
KST3 162328Z 14005KT 17/01 A2992 RMK A01 T01650008  RH  035%=      5-min Rain = 0
KST3 162329Z 15006KT 16/01 A2992 RMK A01 T01640008  RH  035%=      5-min Rain = 0
KST3 162330Z 15006KT 16/01 A2992 RMK A01 T01640008  RH  035%=      5-min Rain = 0
KST3 162331Z 15007KT 16/01 A2992 RMK A01 T01640008  RH  035%=      5-min Rain = 0
KST3 162332Z 16007KT 16/01 A2992 RMK A01 T01630008  RH  035%=      5-min Rain = 0
KST3 162333Z 16007KT 16/01 A2992 RMK A01 T01630008  RH  035%=      5-min Rain = 0
KST3 162334Z 16008KT 16/01 A2992 RMK A01 T01620007  RH  035%=      5-min Rain = 0
KST3 162335Z 16008KT 16/01 A2992 RMK A01 T01630007  RH  035%=      5-min Rain = 0
KST3 162336Z 17009KT 16/01 A2992 RMK A01 T01630008  RH  035%=      5-min Rain = 0
KST3 162337Z 17009KT 16/01 A2992 RMK A01 T01630007  RH  035%=      5-min Rain = 0
KST3 162338Z 16008KT 16/01 A2992 RMK A01 T01640008  RH  035%=      5-min Rain = 0
KST3 162339Z 17009KT 16/01 A2992 RMK A01 T01640008  RH  035%=      5-min Rain = 0
KST3 162340Z 17010KT 16/01 A2992 RMK A01 T01630007  RH  035%=      5-min Rain = 0
KST3 162341Z 17008KT 16/01 A2992 RMK A01 T01640007  RH  035%=      5-min Rain = 0
KST3 162342Z 16008KT 16/01 A2992 RMK A01 T01640007  RH  035%=      5-min Rain = 0
KST3 162343Z 17007KT 16/01 A2992 RMK A01 T01630007  RH  035%=      5-min Rain = 0
KST3 162344Z 16007KT 16/01 A2992 RMK A01 T01630007  RH  035%=      5-min Rain = 0
KST3 162345Z 17008KT 16/01 A2992 RMK A01 T01630007  RH  035%=      5-min Rain = 0
KST3 162346Z 17008KT 16/01 A2993 RMK A01 T01630007  RH  035%=      5-min Rain = 0
KST3 162347Z 17007KT 16/01 A2993 RMK A01 T01630007  RH  035%=      5-min Rain = 0
KST3 162348Z 17008KT 16/01 A2993 RMK A01 T01630006  RH  035%=      5-min Rain = 0
KST3 162349Z 17008KT 16/01 A2993 RMK A01 T01620006  RH  035%=      5-min Rain = 0
KST3 162350Z 17007KT 16/01 A2993 RMK A01 T01620006  RH  035%=      5-min Rain = 0
KST3 162351Z 17008KT 16/01 A2993 RMK A01 T01620006  RH  035%=      5-min Rain = 0
KST3 162352Z 17008KT 16/01 A2993 RMK A01 T01610006  RH  035%=      5-min Rain = 0
KST3 162353Z 17009KT 16/01 A2993 RMK A01 T01600006  RH  035%=      5-min Rain = 0
KST3 162354Z 17008KT 16/01 A2993 RMK A01 T01600006  RH  035%=      5-min Rain = 0
KST3 162355Z 17009KT 16/01 A2993 RMK A01 T01600006  RH  035%=      5-min Rain = 0
KST3 162356Z 17008KT 16/01 A2993 RMK A01 T01600006  RH  035%=      5-min Rain = 0
KST3 162357Z 17008KT 16/01 A2994 RMK A01 T01600006  RH  035%=      5-min Rain = 0
KST3 162358Z 17007KT 16/01 A2994 RMK A01 T01590006  RH  035%=      5-min Rain = 0
KST3 162359Z 17007KT 16/01 A2994 RMK A01 T01580005  RH  035%=      5-min Rain = 0
KST3 170000Z 17007KT 16/01 A2994 RMK A01 T01570005  RH  036%=      5-min Rain = 0
KST3 170001Z 17008KT 16/01 A2993 RMK A01 T01570005  RH  036%=      5-min Rain = 0
KST3 170002Z 17008KT 16/01 A2993 RMK A01 T01570005  RH  036%=      5-min Rain = 0
KST3 170003Z 17008KT 16/01 A2993 RMK A01 T01570005  RH  036%=      5-min Rain = 0
KST3 170004Z 17008KT 16/01 A2993 RMK A01 T01560005  RH  036%=      5-min Rain = 0
KST3 170005Z 17008KT 16/01 A2993 RMK A01 T01560005  RH  036%=      5-min Rain = 0
KST3 170006Z 17008KT 16/01 A2993 RMK A01 T01560006  RH  036%=      5-min Rain = 0
KST3 170007Z 17008KT 16/01 A2993 RMK A01 T01550005  RH  036%=      5-min Rain = 0
KST3 170008Z 17008KT 16/01 A2993 RMK A01 T01550005  RH  036%=      5-min Rain = 0
KST3 170009Z 17008KT 15/01 A2993 RMK A01 T01540005  RH  036%=      5-min Rain = 0
KST3 170010Z 17008KT 15/01 A2993 RMK A01 T01540005  RH  036%=      5-min Rain = 0
KST3 170011Z 17008KT 15/01 A2993 RMK A01 T01540005  RH  036%=      5-min Rain = 0
KST3 170012Z 17007KT 15/01 A2993 RMK A01 T01540005  RH  036%=      5-min Rain = 0
KST3 170013Z 17009KT 15/01 A2993 RMK A01 T01540005  RH  036%=      5-min Rain = 0
KST3 170014Z 17008KT 15/01 A2993 RMK A01 T01540005  RH  036%=      5-min Rain = 0
KST3 170015Z 17008KT 15/01 A2993 RMK A01 T01530005  RH  036%=      5-min Rain = 0
KST3 170016Z 17008KT 15/01 A2993 RMK A01 T01530005  RH  037%=      5-min Rain = 0
KST3 170017Z 17009KT 15/01 A2993 RMK A01 T01520005  RH  037%=      5-min Rain = 0
KST3 170018Z 17008KT 15/01 A2994 RMK A01 T01520005  RH  037%=      5-min Rain = 0
KST3 170019Z 17009KT 15/01 A2994 RMK A01 T01510005  RH  037%=      5-min Rain = 0
KST3 170020Z 17008KT 15/01 A2994 RMK A01 T01520006  RH  037%=      5-min Rain = 0
KST3 170021Z 18008KT 15/01 A2994 RMK A01 T01510005  RH  037%=      5-min Rain = 0
KST3 170022Z 17008KT 15/01 A2994 RMK A01 T01510005  RH  037%=      5-min Rain = 0
KST3 170023Z 18008KT 15/01 A2994 RMK A01 T01510005  RH  037%=      5-min Rain = 0
KST3 170024Z 18008KT 15/01 A2994 RMK A01 T01500005  RH  037%=      5-min Rain = 0
KST3 170025Z 18008KT 15/01 A2994 RMK A01 T01490005  RH  037%=      5-min Rain = 0
KST3 170026Z 18008KT 15/01 A2994 RMK A01 T01490005  RH  038%=      5-min Rain = 0
KST3 170027Z 18009KT 15/01 A2994 RMK A01 T01490005  RH  038%=      5-min Rain = 0
KST3 170028Z 18009KT 15/01 A2994 RMK A01 T01480005  RH  038%=      5-min Rain = 0
KST3 170029Z 18008KT 15/01 A2994 RMK A01 T01480005  RH  038%=      5-min Rain = 0
KST3 170030Z 18008KT 15/01 A2994 RMK A01 T01480005  RH  038%=      5-min Rain = 0
KST3 170031Z 18008KT 15/01 A2994 RMK A01 T01470005  RH  038%=      5-min Rain = 0
KST3 170032Z 18008KT 15/01 A2994 RMK A01 T01460005  RH  038%=      5-min Rain = 0
KST3 170033Z 18008KT 15/01 A2994 RMK A01 T01450005  RH  038%=      5-min Rain = 0
KST3 170034Z 18009KT 14/01 A2994 RMK A01 T01440005  RH  039%=      5-min Rain = 0
KST3 170035Z 18009KT 15/01 A2994 RMK A01 T01450006  RH  039%=      5-min Rain = 0
KST3 170036Z 18009KT 15/01 A2994 RMK A01 T01460006  RH  039%=      5-min Rain = 0
KST3 170037Z 18008KT 15/01 A2994 RMK A01 T01460006  RH  038%=      5-min Rain = 0
KST3 170038Z 18008KT 15/01 A2994 RMK A01 T01460006  RH  039%=      5-min Rain = 0
KST3 170039Z 18009KT 15/01 A2994 RMK A01 T01450006  RH  039%=      5-min Rain = 0
KST3 170040Z 18008KT 15/01 A2994 RMK A01 T01450006  RH  039%=      5-min Rain = 0
KST3 170041Z 18008KT 14/01 A2994 RMK A01 T01440006  RH  039%=      5-min Rain = 0
KST3 170042Z 18009KT 14/01 A2994 RMK A01 T01430006  RH  039%=      5-min Rain = 0
KST3 170043Z 18008KT 14/01 A2994 RMK A01 T01430006  RH  039%=      5-min Rain = 0
KST3 170044Z 19009KT 14/01 A2994 RMK A01 T01430007  RH  039%=      5-min Rain = 0
KST3 170045Z 19009KT 14/01 A2994 RMK A01 T01420006  RH  040%=      5-min Rain = 0
KST3 170046Z 19009KT 14/01 A2994 RMK A01 T01410006  RH  040%=      5-min Rain = 0
KST3 170047Z 19010KT 14/01 A2994 RMK A01 T01410006  RH  040%=      5-min Rain = 0
KST3 170048Z 20009KT 14/01 A2994 RMK A01 T01410006  RH  040%=      5-min Rain = 0
KST3 170049Z 19012KT 14/01 A2994 RMK A01 T01400006  RH  040%=      5-min Rain = 0
KST3 170050Z 19012KT 14/01 A2994 RMK A01 T01420007  RH  040%=      5-min Rain = 0
KST3 170051Z 19011KT 14/01 A2994 RMK A01 T01440007  RH  039%=      5-min Rain = 0
KST3 170052Z 20010KT 14/01 A2994 RMK A01 T01440007  RH  039%=      5-min Rain = 0
KST3 170053Z 19011KT 14/01 A2994 RMK A01 T01410006  RH  040%=      5-min Rain = 0
KST3 170054Z 19010KT 14/01 A2994 RMK A01 T01390006  RH  040%=      5-min Rain = 0
KST3 170055Z 20010KT 14/01 A2994 RMK A01 T01390007  RH  040%=      5-min Rain = 0
KST3 170056Z 20010KT 14/01 A2994 RMK A01 T01390007  RH  041%=      5-min Rain = 0
KST3 170057Z 19010KT 14/01 A2994 RMK A01 T01390008  RH  041%=      5-min Rain = 0
KST3 170058Z 20010KT 14/01 A2994 RMK A01 T01390008  RH  041%=      5-min Rain = 0
KST3 170059Z 19010KT 14/01 A2994 RMK A01 T01380007  RH  041%=      5-min Rain = 0
KST3 170100Z 19009KT 14/01 A2994 RMK A01 T01380007  RH  041%=      5-min Rain = 0
KST3 170101Z 20009KT 14/01 A2994 RMK A01 T01390008  RH  041%=      5-min Rain = 0
KST3 170102Z 20009KT 14/01 A2994 RMK A01 T01380008  RH  041%=      5-min Rain = 0
KST3 170103Z 19009KT 14/01 A2995 RMK A01 T01380008  RH  041%=      5-min Rain = 0
KST3 170104Z 20009KT 14/01 A2995 RMK A01 T01380008  RH  041%=      5-min Rain = 0
KST3 170105Z 20009KT 14/01 A2995 RMK A01 T01370008  RH  041%=      5-min Rain = 0
KST3 170106Z 19010KT 14/01 A2995 RMK A01 T01370008  RH  041%=      5-min Rain = 0
KST3 170107Z 20009KT 14/01 A2995 RMK A01 T01380008  RH  041%=      5-min Rain = 0
KST3 170108Z 19009KT 14/01 A2995 RMK A01 T01380008  RH  041%=      5-min Rain = 0
KST3 170109Z 20009KT 14/01 A2995 RMK A01 T01380008  RH  041%=      5-min Rain = 0
KST3 170110Z 20009KT 14/01 A2995 RMK A01 T01380008  RH  041%=      5-min Rain = 0
KST3 170111Z 20009KT 14/01 A2995 RMK A01 T01360008  RH  041%=      5-min Rain = 0
KST3 170112Z 20009KT 14/01 A2995 RMK A01 T01350008  RH  042%=      5-min Rain = 0
KST3 170113Z 20009KT 13/01 A2995 RMK A01 T01330008  RH  042%=      5-min Rain = 0
KST3 170114Z 20008KT 13/01 A2995 RMK A01 T01310007  RH  043%=      5-min Rain = 0
KST3 170115Z 20008KT 13/01 A2995 RMK A01 T01300008  RH  043%=      5-min Rain = 0
KST3 170116Z 20009KT 13/01 A2995 RMK A01 T01290008  RH  043%=      5-min Rain = 0
KST3 170117Z 20009KT 13/01 A2995 RMK A01 T01280007  RH  044%=      5-min Rain = 0
KST3 170118Z 20009KT 13/01 A2995 RMK A01 T01270007  RH  044%=      5-min Rain = 0
KST3 170119Z 21009KT 13/01 A2995 RMK A01 T01270008  RH  044%=      5-min Rain = 0
KST3 170120Z 21009KT 13/01 A2995 RMK A01 T01260008  RH  044%=      5-min Rain = 0
KST3 170121Z 21009KT 13/01 A2995 RMK A01 T01260008  RH  045%=      5-min Rain = 0
KST3 170122Z 21009KT 13/01 A2995 RMK A01 T01250008  RH  045%=      5-min Rain = 0
KST3 170123Z 21008KT 13/01 A2995 RMK A01 T01250008  RH  045%=      5-min Rain = 0
KST3 170124Z 21008KT 12/01 A2995 RMK A01 T01240008  RH  045%=      5-min Rain = 0
KST3 170125Z 21008KT 12/01 A2995 RMK A01 T01230008  RH  045%=      5-min Rain = 0
KST3 170126Z 21009KT 12/01 A2995 RMK A01 T01230008  RH  045%=      5-min Rain = 0
KST3 170127Z 21009KT 12/01 A2995 RMK A01 T01220008  RH  046%=      5-min Rain = 0
KST3 170128Z 21008KT 12/01 A2995 RMK A01 T01210008  RH  046%=      5-min Rain = 0
KST3 170129Z 21008KT 12/01 A2995 RMK A01 T01200008  RH  046%=      5-min Rain = 0
KST3 170130Z 22008KT 12/01 A2995 RMK A01 T01200008  RH  046%=      5-min Rain = 0
KST3 170131Z 22008KT 12/01 A2995 RMK A01 T01200008  RH  046%=      5-min Rain = 0
KST3 170132Z 22008KT 12/01 A2995 RMK A01 T01190008  RH  047%=      5-min Rain = 0
KST3 170133Z 22008KT 12/01 A2995 RMK A01 T01180008  RH  047%=      5-min Rain = 0
KST3 170134Z 22009KT 12/01 A2995 RMK A01 T01190008  RH  047%=      5-min Rain = 0
KST3 170135Z 21008KT 12/01 A2995 RMK A01 T01200009  RH  046%=      5-min Rain = 0
KST3 170136Z 21009KT 12/01 A2995 RMK A01 T01200009  RH  047%=      5-min Rain = 0
KST3 170137Z 22009KT 12/01 A2995 RMK A01 T01190009  RH  047%=      5-min Rain = 0
KST3 170138Z 21009KT 12/01 A2995 RMK A01 T01190008  RH  047%=      5-min Rain = 0
KST3 170139Z 21008KT 12/01 A2996 RMK A01 T01190009  RH  047%=      5-min Rain = 0
KST3 170140Z 21009KT 12/01 A2996 RMK A01 T01180009  RH  047%=      5-min Rain = 0
KST3 170141Z 22008KT 12/01 A2996 RMK A01 T01180009  RH  047%=      5-min Rain = 0
KST3 170142Z 22009KT 12/01 A2996 RMK A01 T01170009  RH  047%=      5-min Rain = 0
KST3 170143Z 22009KT 12/01 A2996 RMK A01 T01170009  RH  047%=      5-min Rain = 0
KST3 170144Z 22009KT 12/01 A2996 RMK A01 T01180009  RH  047%=      5-min Rain = 0
KST3 170145Z 21009KT 12/01 A2996 RMK A01 T01180009  RH  047%=      5-min Rain = 0
KST3 170146Z 21009KT 12/01 A2996 RMK A01 T01190009  RH  047%=      5-min Rain = 0
KST3 170147Z 21010KT 12/01 A2996 RMK A01 T01190009  RH  047%=      5-min Rain = 0
KST3 170148Z 21010KT 12/01 A2996 RMK A01 T01200009  RH  047%=      5-min Rain = 0
KST3 170149Z 21010KT 12/01 A2996 RMK A01 T01210010  RH  046%=      5-min Rain = 0
KST3 170150Z 22009KT 12/01 A2996 RMK A01 T01220009  RH  046%=      5-min Rain = 0
KST3 170151Z 22009KT 12/01 A2996 RMK A01 T01230009  RH  046%=      5-min Rain = 0
KST3 170152Z 22010KT 12/01 A2997 RMK A01 T01230009  RH  046%=      5-min Rain = 0
KST3 170153Z 22009KT 12/01 A2997 RMK A01 T01240010  RH  045%=      5-min Rain = 0
KST3 170154Z 22008KT 13/01 A2997 RMK A01 T01250010  RH  045%=      5-min Rain = 0
KST3 170155Z 23009KT 13/01 A2997 RMK A01 T01250009  RH  045%=      5-min Rain = 0
KST3 170156Z 23009KT 12/01 A2997 RMK A01 T01240009  RH  045%=      5-min Rain = 0
KST3 170157Z 23010KT 12/01 A2997 RMK A01 T01230009  RH  046%=      5-min Rain = 0
KST3 170158Z 22010KT 12/01 A2997 RMK A01 T01210008  RH  046%=      5-min Rain = 0
KST3 170159Z 22010KT 12/01 A2997 RMK A01 T01200009  RH  046%=      5-min Rain = 0
KST3 170200Z 22010KT 12/01 A2997 RMK A01 T01200009  RH  047%=      5-min Rain = 0
KST3 170201Z 22010KT 12/01 A2997 RMK A01 T01200009  RH  047%=      5-min Rain = 0
KST3 170202Z 22010KT 12/01 A2997 RMK A01 T01190009  RH  047%=      5-min Rain = 0
KST3 170203Z 22010KT 12/01 A2997 RMK A01 T01200010  RH  047%=      5-min Rain = 0
KST3 170204Z 22011KT 12/01 A2997 RMK A01 T01220010  RH  046%=      5-min Rain = 0
KST3 170205Z 22011KT 12/01 A2997 RMK A01 T01230010  RH  046%=      5-min Rain = 0
KST3 170206Z 22011KT 12/01 A2997 RMK A01 T01230010  RH  046%=      5-min Rain = 0
KST3 170207Z 21011KT 12/01 A2997 RMK A01 T01230010  RH  046%=      5-min Rain = 0
KST3 170208Z 21011KT 12/01 A2997 RMK A01 T01230010  RH  046%=      5-min Rain = 0
KST3 170209Z 21011KT 12/01 A2997 RMK A01 T01240010  RH  046%=      5-min Rain = 0
KST3 170210Z 21010KT 12/01 A2997 RMK A01 T01240010  RH  046%=      5-min Rain = 0
KST3 170211Z 21009KT 12/01 A2997 RMK A01 T01240009  RH  046%=      5-min Rain = 0
KST3 170212Z 21009KT 12/01 A2998 RMK A01 T01240010  RH  045%=      5-min Rain = 0
KST3 170213Z 21008KT 12/01 A2998 RMK A01 T01240009  RH  046%=      5-min Rain = 0
KST3 170214Z 22008KT 12/01 A2998 RMK A01 T01230009  RH  046%=      5-min Rain = 0
KST3 170215Z 22007KT 12/01 A2998 RMK A01 T01230009  RH  046%=      5-min Rain = 0
KST3 170216Z 22007KT 12/01 A2998 RMK A01 T01220009  RH  046%=      5-min Rain = 0
KST3 170217Z 22007KT 12/01 A2998 RMK A01 T01220008  RH  046%=      5-min Rain = 0
KST3 170218Z 22007KT 12/01 A2998 RMK A01 T01210008  RH  046%=      5-min Rain = 0
KST3 170219Z 22007KT 12/01 A2998 RMK A01 T01200008  RH  046%=      5-min Rain = 0
KST3 170220Z 22007KT 12/01 A2998 RMK A01 T01190008  RH  046%=      5-min Rain = 0
KST3 170221Z 22007KT 12/01 A2998 RMK A01 T01190008  RH  047%=      5-min Rain = 0
KST3 170222Z 22007KT 12/01 A2998 RMK A01 T01170007  RH  047%=      5-min Rain = 0
KST3 170223Z 22007KT 12/01 A2998 RMK A01 T01160007  RH  047%=      5-min Rain = 0
KST3 170224Z 22008KT 12/01 A2998 RMK A01 T01150007  RH  048%=      5-min Rain = 0
KST3 170225Z 22008KT 11/01 A2998 RMK A01 T01130007  RH  048%=      5-min Rain = 0
KST3 170226Z 22008KT 11/01 A2998 RMK A01 T01110007  RH  049%=      5-min Rain = 0
KST3 170227Z 22007KT 11/01 A2998 RMK A01 T01110008  RH  049%=      5-min Rain = 0
KST3 170228Z 22008KT 11/01 A2998 RMK A01 T01100007  RH  049%=      5-min Rain = 0
KST3 170229Z 22008KT 11/01 A2998 RMK A01 T01090007  RH  049%=      5-min Rain = 0
KST3 170230Z 22009KT 11/01 A2998 RMK A01 T01090008  RH  050%=      5-min Rain = 0
KST3 170231Z 22009KT 11/01 A2998 RMK A01 T01080007  RH  050%=      5-min Rain = 0
KST3 170232Z 22009KT 11/01 A2998 RMK A01 T01080008  RH  050%=      5-min Rain = 0
KST3 170233Z 21009KT 11/01 A2998 RMK A01 T01080008  RH  050%=      5-min Rain = 0
KST3 170234Z 21009KT 11/01 A2998 RMK A01 T01100009  RH  050%=      5-min Rain = 0
KST3 170235Z 21008KT 11/01 A2998 RMK A01 T01100009  RH  050%=      5-min Rain = 0
KST3 170236Z 21008KT 11/01 A2998 RMK A01 T01110009  RH  049%=      5-min Rain = 0
KST3 170237Z 21008KT 11/01 A2997 RMK A01 T01120009  RH  049%=      5-min Rain = 0
KST3 170238Z 21007KT 11/01 A2997 RMK A01 T01120009  RH  049%=      5-min Rain = 0
KST3 170239Z 21008KT 11/01 A2997 RMK A01 T01130009  RH  049%=      5-min Rain = 0
KST3 170240Z 21008KT 11/01 A2997 RMK A01 T01140009  RH  048%=      5-min Rain = 0
KST3 170241Z 21008KT 12/01 A2997 RMK A01 T01150009  RH  048%=      5-min Rain = 0
KST3 170242Z 21007KT 12/01 A2997 RMK A01 T01160009  RH  048%=      5-min Rain = 0
KST3 170243Z 21007KT 12/01 A2997 RMK A01 T01160009  RH  048%=      5-min Rain = 0
KST3 170244Z 22006KT 12/01 A2997 RMK A01 T01160008  RH  048%=      5-min Rain = 0
KST3 170245Z 22005KT 12/01 A2997 RMK A01 T01150008  RH  048%=      5-min Rain = 0
KST3 170246Z 21004KT 12/01 A2997 RMK A01 T01150008  RH  048%=      5-min Rain = 0
KST3 170247Z 20005KT 12/01 A2997 RMK A01 T01150009  RH  048%=      5-min Rain = 0
KST3 170248Z 19007KT 12/01 A2997 RMK A01 T01160009  RH  048%=      5-min Rain = 0
KST3 170249Z 20008KT 12/01 A2998 RMK A01 T01170009  RH  048%=      5-min Rain = 0
KST3 170250Z 20008KT 12/01 A2998 RMK A01 T01190011  RH  047%=      5-min Rain = 0
KST3 170251Z 21008KT 12/01 A2998 RMK A01 T01230012  RH  047%=      5-min Rain = 0
KST3 170252Z 21008KT 13/01 A2998 RMK A01 T01250011  RH  046%=      5-min Rain = 0
KST3 170253Z 20007KT 13/01 A2998 RMK A01 T01270011  RH  045%=      5-min Rain = 0
KST3 170254Z 20007KT 13/01 A2998 RMK A01 T01280011  RH  045%=      5-min Rain = 0
KST3 170255Z 21007KT 13/01 A2998 RMK A01 T01280010  RH  045%=      5-min Rain = 0
KST3 170256Z 21006KT 13/01 A2998 RMK A01 T01260010  RH  045%=      5-min Rain = 0
KST3 170257Z 21006KT 12/01 A2998 RMK A01 T01230009  RH  046%=      5-min Rain = 0
KST3 170258Z 21006KT 12/01 A2998 RMK A01 T01200009  RH  047%=      5-min Rain = 0
KST3 170259Z 21005KT 12/01 A2998 RMK A01 T01170009  RH  047%=      5-min Rain = 0
KST3 170300Z 21005KT 12/01 A2998 RMK A01 T01160009  RH  048%=      5-min Rain = 0
KST3 170301Z 20005KT 12/01 A2998 RMK A01 T01160009  RH  048%=      5-min Rain = 0
KST3 170302Z 20005KT 12/01 A2998 RMK A01 T01160009  RH  048%=      5-min Rain = 0
KST3 170303Z 20005KT 12/01 A2998 RMK A01 T01170009  RH  048%=      5-min Rain = 0
KST3 170304Z 20005KT 12/01 A2998 RMK A01 T01180009  RH  047%=      5-min Rain = 0
KST3 170305Z 20005KT 12/01 A2998 RMK A01 T01190009  RH  047%=      5-min Rain = 0
KST3 170306Z 20005KT 12/01 A2998 RMK A01 T01200009  RH  047%=      5-min Rain = 0
KST3 170307Z 19006KT 12/01 A2998 RMK A01 T01200009  RH  046%=      5-min Rain = 0
KST3 170308Z 19006KT 12/01 A2998 RMK A01 T01200009  RH  046%=      5-min Rain = 0
KST3 170309Z 19006KT 12/01 A2998 RMK A01 T01200009  RH  046%=      5-min Rain = 0
KST3 170310Z 19006KT 12/01 A2998 RMK A01 T01190009  RH  047%=      5-min Rain = 0
KST3 170311Z 19005KT 12/01 A2998 RMK A01 T01180009  RH  047%=      5-min Rain = 0
KST3 170312Z 19006KT 12/01 A2998 RMK A01 T01170009  RH  047%=      5-min Rain = 0
KST3 170313Z 19006KT 12/01 A2998 RMK A01 T01170009  RH  047%=      5-min Rain = 0
KST3 170314Z 19006KT 12/01 A2998 RMK A01 T01180010  RH  047%=      5-min Rain = 0
KST3 170315Z 19005KT 12/01 A2998 RMK A01 T01200010  RH  047%=      5-min Rain = 0
KST3 170316Z 19005KT 12/01 A2998 RMK A01 T01200010  RH  047%=      5-min Rain = 0
KST3 170317Z 19004KT 12/01 A2998 RMK A01 T01200010  RH  047%=      5-min Rain = 0
KST3 170318Z 19004KT 12/01 A2998 RMK A01 T01210010  RH  046%=      5-min Rain = 0
KST3 170319Z 20004KT 12/01 A2998 RMK A01 T01220010  RH  046%=      5-min Rain = 0
KST3 170320Z 20003KT 12/01 A2998 RMK A01 T01230010  RH  046%=      5-min Rain = 0
KST3 170321Z 21002KT 12/01 A2998 RMK A01 T01230010  RH  046%=      5-min Rain = 0
KST3 170322Z 22001KT 12/01 A2998 RMK A01 T01230009  RH  046%=      5-min Rain = 0
KST3 170323Z 26001KT 12/01 A2998 RMK A01 T01220009  RH  046%=      5-min Rain = 0
KST3 170324Z 32002KT 12/01 A2998 RMK A01 T01180008  RH  047%=      5-min Rain = 0
KST3 170325Z 32003KT 11/01 A2999 RMK A01 T01110008  RH  049%=      5-min Rain = 0
KST3 170326Z 32003KT 11/01 A2999 RMK A01 T01070009  RH  051%=      5-min Rain = 0
KST3 170327Z 32003KT 11/01 A2999 RMK A01 T01060009  RH  051%=      5-min Rain = 0
KST3 170328Z 32003KT 11/01 A2999 RMK A01 T01070010  RH  051%=      5-min Rain = 0
KST3 170329Z 32003KT 11/01 A2999 RMK A01 T01080009  RH  050%=      5-min Rain = 0
KST3 170330Z 35003KT 11/01 A2999 RMK A01 T01100010  RH  050%=      5-min Rain = 0
KST3 170331Z 34003KT 11/01 A2999 RMK A01 T01090010  RH  050%=      5-min Rain = 0
KST3 170332Z 34002KT 11/01 A2999 RMK A01 T01070010  RH  051%=      5-min Rain = 0
KST3 170333Z 34003KT 11/01 A2999 RMK A01 T01060010  RH  051%=      5-min Rain = 0
KST3 170334Z 34003KT 11/01 A2999 RMK A01 T01050010  RH  052%=      5-min Rain = 0
KST3 170335Z 34003KT 11/01 A2999 RMK A01 T01050010  RH  052%=      5-min Rain = 0
KST3 170336Z 33005KT 11/01 A2999 RMK A01 T01050010  RH  052%=      5-min Rain = 0
KST3 170337Z 33005KT 10/01 A2999 RMK A01 T01040010  RH  052%=      5-min Rain = 0
KST3 170338Z 33005KT 10/01 A2999 RMK A01 T01040011  RH  052%=      5-min Rain = 0
KST3 170339Z 32004KT 11/01 A2999 RMK A01 T01050011  RH  052%=      5-min Rain = 0
KST3 170340Z 32004KT 11/01 A2999 RMK A01 T01070011  RH  052%=      5-min Rain = 0
KST3 170341Z 32003KT 11/01 A2999 RMK A01 T01080011  RH  051%=      5-min Rain = 0
KST3 170342Z 32002KT 11/01 A2999 RMK A01 T01090011  RH  051%=      5-min Rain = 0
KST3 170343Z 32002KT 11/01 A2999 RMK A01 T01100010  RH  050%=      5-min Rain = 0
KST3 170344Z 32002KT 11/01 A2999 RMK A01 T01110010  RH  050%=      5-min Rain = 0
KST3 170345Z 32002KT 11/01 A2999 RMK A01 T01120010  RH  050%=      5-min Rain = 0
KST3 170346Z 32002KT 11/01 A2999 RMK A01 T01130010  RH  049%=      5-min Rain = 0
KST3 170347Z 32003KT 12/01 A30 RMK A01 T01150010  RH  049%=      5-min Rain = 0
KST3 170348Z 32003KT 12/01 A30 RMK A01 T01160010  RH  048%=      5-min Rain = 0
KST3 170349Z 32003KT 12/01 A30 RMK A01 T01160010  RH  048%=      5-min Rain = 0
KST3 170350Z 32003KT 12/01 A30 RMK A01 T01160011  RH  048%=      5-min Rain = 0
KST3 170351Z 32004KT 12/01 A30 RMK A01 T01160011  RH  048%=      5-min Rain = 0
KST3 170352Z 33003KT 12/01 A30 RMK A01 T01150010  RH  049%=      5-min Rain = 0
KST3 170353Z 33002KT 12/01 A30 RMK A01 T01150010  RH  049%=      5-min Rain = 0
KST3 170354Z 33003KT 11/01 A30 RMK A01 T01140010  RH  049%=      5-min Rain = 0
KST3 170355Z 33003KT 11/01 A30 RMK A01 T01140010  RH  049%=      5-min Rain = 0
KST3 170356Z 34004KT 11/01 A30 RMK A01 T01140010  RH  049%=      5-min Rain = 0
KST3 170357Z 34004KT 11/01 A30 RMK A01 T01140010  RH  049%=      5-min Rain = 0
KST3 170358Z 34004KT 11/01 A30 RMK A01 T01130010  RH  049%=      5-min Rain = 0
KST3 170359Z 35005KT 11/01 A30 RMK A01 T01130010  RH  049%=      5-min Rain = 0
KST3 170400Z 34005KT 11/01 A30 RMK A01 T01120010  RH  050%=      5-min Rain = 0
KST3 170401Z 34006KT 11/01 A30 RMK A01 T01090010  RH  050%=      5-min Rain = 0
KST3 170402Z 34006KT 11/01 A30 RMK A01 T01080010  RH  051%=      5-min Rain = 0
KST3 170403Z 34006KT 11/01 A30 RMK A01 T01070011  RH  051%=      5-min Rain = 0
KST3 170404Z 34005KT 11/01 A30 RMK A01 T01070011  RH  051%=      5-min Rain = 0
KST3 170405Z 34005KT 11/01 A30 RMK A01 T01060010  RH  051%=      5-min Rain = 0
KST3 170406Z 34004KT 11/01 A30 RMK A01 T01060011  RH  051%=      5-min Rain = 0
KST3 170407Z 34004KT 11/01 A30 RMK A01 T01070010  RH  051%=      5-min Rain = 0
KST3 170408Z 33003KT 11/01 A30 RMK A01 T01070010  RH  051%=      5-min Rain = 0
KST3 170409Z 33003KT 11/01 A30 RMK A01 T01080011  RH  051%=      5-min Rain = 0
KST3 170410Z 33003KT 11/01 A30 RMK A01 T01090011  RH  051%=      5-min Rain = 0
KST3 170411Z 33003KT 11/01 A30 RMK A01 T01100011  RH  050%=      5-min Rain = 0
KST3 170412Z 33002KT 11/01 A30 RMK A01 T01110011  RH  050%=      5-min Rain = 0
KST3 170413Z 33002KT 11/01 A30 RMK A01 T01120011  RH  050%=      5-min Rain = 0
KST3 170414Z 32002KT 11/01 A30 RMK A01 T01120010  RH  049%=      5-min Rain = 0
KST3 170415Z 31001KT 11/01 A30 RMK A01 T01130010  RH  049%=      5-min Rain = 0
KST3 170416Z 31001KT 11/01 A30 RMK A01 T01140010  RH  049%=      5-min Rain = 0
KST3 170417Z 31001KT 12/01 A30 RMK A01 T01160010  RH  048%=      5-min Rain = 0
KST3 170418Z 31001KT 12/01 A30 RMK A01 T01170010  RH  048%=      5-min Rain = 0
KST3 170419Z 31000KT 12/01 A30 RMK A01 T01180010  RH  048%=      5-min Rain = 0
KST3 170420Z 31000KT 12/01 A30 RMK A01 T01180010  RH  047%=      5-min Rain = 0
KST3 170421Z 00000KT 12/01 A30 RMK A01 T01180009  RH  047%=      5-min Rain = 0
KST3 170422Z 00000KT 12/01 A30 RMK A01 T01180010  RH  048%=      5-min Rain = 0
KST3 170423Z 00000KT 12/01 A30 RMK A01 T01180010  RH  048%=      5-min Rain = 0
KST3 170424Z 00000KT 12/01 A30 RMK A01 T01180010  RH  047%=      5-min Rain = 0
KST3 170425Z 00000KT 12/01 A30 RMK A01 T01180010  RH  047%=      5-min Rain = 0
KST3 170426Z 31000KT 12/01 A30 RMK A01 T01190010  RH  047%=      5-min Rain = 0
KST3 170427Z 31001KT 12/01 A30 RMK A01 T01200010  RH  047%=      5-min Rain = 0
KST3 170428Z 32002KT 12/01 A30 RMK A01 T01210009  RH  046%=      5-min Rain = 0
KST3 170429Z 32002KT 12/01 A30 RMK A01 T01210009  RH  046%=      5-min Rain = 0
KST3 170430Z 32002KT 12/01 A30 RMK A01 T01210010  RH  046%=      5-min Rain = 0
KST3 170431Z 32003KT 12/01 A30 RMK A01 T01210010  RH  046%=      5-min Rain = 0
KST3 170432Z 33004KT 12/01 A30 RMK A01 T01200010  RH  047%=      5-min Rain = 0
KST3 170433Z 33005KT 12/01 A30 RMK A01 T01190010  RH  047%=      5-min Rain = 0
KST3 170434Z 33005KT 12/01 A30 RMK A01 T01170010  RH  048%=      5-min Rain = 0
KST3 170435Z 33005KT 11/01 A30 RMK A01 T01140010  RH  049%=      5-min Rain = 0
KST3 170436Z 33005KT 11/01 A30 RMK A01 T01110010  RH  050%=      5-min Rain = 0
KST3 170437Z 32005KT 11/01 A30 RMK A01 T01090011  RH  051%=      5-min Rain = 0
KST3 170438Z 32005KT 11/01 A30 RMK A01 T01090011  RH  051%=      5-min Rain = 0
KST3 170439Z 32005KT 11/01 A30 RMK A01 T01080011  RH  051%=      5-min Rain = 0
KST3 170440Z 32005KT 11/01 A30 RMK A01 T01090011  RH  051%=      5-min Rain = 0
KST3 170441Z 32005KT 11/01 A30 RMK A01 T01090012  RH  051%=      5-min Rain = 0
KST3 170442Z 32006KT 11/01 A30 RMK A01 T01080011  RH  051%=      5-min Rain = 0
KST3 170443Z 32006KT 11/01 A30 RMK A01 T01080011  RH  051%=      5-min Rain = 0
KST3 170444Z 32007KT 11/01 A30 RMK A01 T01080011  RH  051%=      5-min Rain = 0
KST3 170445Z 32007KT 11/01 A3001 RMK A01 T01070012  RH  052%=      5-min Rain = 0
KST3 170446Z 33007KT 11/01 A3001 RMK A01 T01060012  RH  052%=      5-min Rain = 0
KST3 170447Z 33007KT 10/01 A3001 RMK A01 T01040012  RH  053%=      5-min Rain = 0
KST3 170448Z 33007KT 10/01 A3001 RMK A01 T01020012  RH  054%=      5-min Rain = 0
KST3 170449Z 33007KT 10/01 A3001 RMK A01 T01000012  RH  054%=      5-min Rain = 0
KST3 170450Z 33008KT 10/01 A3001 RMK A01 T01000012  RH  054%=      5-min Rain = 0
KST3 170451Z 32008KT 10/01 A3001 RMK A01 T01000012  RH  054%=      5-min Rain = 0
KST3 170452Z 33008KT 10/01 A3002 RMK A01 T01010012  RH  054%=      5-min Rain = 0
KST3 170453Z 33008KT 10/01 A3002 RMK A01 T01010013  RH  054%=      5-min Rain = 0
KST3 170454Z 33008KT 10/01 A3002 RMK A01 T00990013  RH  055%=      5-min Rain = 0
KST3 170455Z 30007KT 10/01 A3002 RMK A01 T00980012  RH  055%=      5-min Rain = 0
KST3 170456Z 32009KT 10/01 A3002 RMK A01 T01030013  RH  054%=      5-min Rain = 0
KST3 170457Z 32008KT 11/01 A3002 RMK A01 T01080013  RH  052%=      5-min Rain = 0
KST3 170458Z 32007KT 11/01 A3002 RMK A01 T01100012  RH  051%=      5-min Rain = 0
KST3 170459Z 33008KT 11/01 A3002 RMK A01 T01090013  RH  051%=      5-min Rain = 0
KST3 170500Z 33006KT 11/01 A3002 RMK A01 T01060013  RH  052%=      5-min Rain = 0
KST3 170501Z 33006KT 10/01 A3002 RMK A01 T01040012  RH  053%=      5-min Rain = 0
KST3 170502Z 33007KT 10/01 A3002 RMK A01 T01020012  RH  054%=      5-min Rain = 0
KST3 170503Z 34008KT 10/01 A3002 RMK A01 T01010012  RH  054%=      5-min Rain = 0
KST3 170504Z 34008KT 10/01 A3002 RMK A01 T01000012  RH  054%=      5-min Rain = 0
KST3 170505Z 35009KT 10/01 A3002 RMK A01 T01000012  RH  054%=      5-min Rain = 0
KST3 170506Z 35009KT 10/01 A3002 RMK A01 T01000012  RH  054%=      5-min Rain = 0
KST3 170507Z 35010KT 10/01 A3002 RMK A01 T01010011  RH  054%=      5-min Rain = 0
KST3 170508Z 35010KT 10/01 A3002 RMK A01 T01020011  RH  053%=      5-min Rain = 0
KST3 170509Z 35010KT 10/01 A3002 RMK A01 T01010011  RH  053%=      5-min Rain = 0
KST3 170510Z 35010KT 10/01 A3002 RMK A01 T01010011  RH  053%=      5-min Rain = 0
KST3 170511Z 35010KT 10/01 A3002 RMK A01 T01010010  RH  053%=      5-min Rain = 0
KST3 170512Z 36010KT 10/01 A3002 RMK A01 T01010010  RH  053%=      5-min Rain = 0
KST3 170513Z 35009KT 10/01 A3002 RMK A01 T01010010  RH  053%=      5-min Rain = 0
KST3 170514Z 36010KT 10/01 A3002 RMK A01 T01000010  RH  054%=      5-min Rain = 0
KST3 170515Z 35011KT 10/01 A3002 RMK A01 T00990010  RH  054%=      5-min Rain = 0
KST3 170516Z 36011KT 10/01 A3002 RMK A01 T00980010  RH  054%=      5-min Rain = 0
KST3 170517Z 36012KT 10/01 A3002 RMK A01 T00980009  RH  054%=      5-min Rain = 0
KST3 170518Z 36012KT 10/01 A3002 RMK A01 T00980008  RH  054%=      5-min Rain = 0
KST3 170519Z 36012KT 10/01 A3002 RMK A01 T00990008  RH  053%=      5-min Rain = 0
KST3 170520Z 00013KT 10/01 A3002 RMK A01 T00990007  RH  053%=      5-min Rain = 0
KST3 170521Z 00013KT 10/01 A3002 RMK A01 T00990006  RH  052%=      5-min Rain = 0
KST3 170522Z 00013KT 10/01 A3002 RMK A01 T00990006  RH  052%=      5-min Rain = 0
KST3 170523Z 01012KT 10/01 A3002 RMK A01 T01000005  RH  052%=      5-min Rain = 0
KST3 170524Z 00012KT 10/00 A3002 RMK A01 T01010004  RH  051%=      5-min Rain = 0
KST3 170525Z 01012KT 10/00 A3002 RMK A01 T01010004  RH  051%=      5-min Rain = 0
KST3 170526Z 00012KT 10/00 A3002 RMK A01 T01010004  RH  051%=      5-min Rain = 0
KST3 170527Z 00012KT 10/00 A3002 RMK A01 T01020004  RH  051%=      5-min Rain = 0
KST3 170528Z 00012KT 10/00 A3002 RMK A01 T01010003  RH  051%=      5-min Rain = 0
KST3 170529Z 00012KT 10/00 A3002 RMK A01 T01010003  RH  050%=      5-min Rain = 0
KST3 170530Z 00011KT 10/00 A3002 RMK A01 T01010002  RH  050%=      5-min Rain = 0
KST3 170531Z 00011KT 10/00 A3002 RMK A01 T01010002  RH  050%=      5-min Rain = 0
KST3 170532Z 36011KT 10/00 A3002 RMK A01 T01000001  RH  050%=      5-min Rain = 0
KST3 170533Z 00011KT 10/00 A3002 RMK A01 T010000-0  RH  050%=      5-min Rain = 0
KST3 170534Z 00011KT 10/M00 A3002 RMK A01 T01001002  RH  049%=      5-min Rain = 0
KST3 170535Z 00012KT 10/M00 A3002 RMK A01 T01001004  RH  048%=      5-min Rain = 0
KST3 170536Z 00012KT 10/M01 A3002 RMK A01 T01001006  RH  048%=      5-min Rain = 0
KST3 170537Z 00011KT 10/M01 A3003 RMK A01 T01001007  RH  047%=      5-min Rain = 0
KST3 170538Z 36011KT 10/M01 A3003 RMK A01 T01001008  RH  047%=      5-min Rain = 0
KST3 170539Z 35011KT 10/M01 A3003 RMK A01 T01001009  RH  046%=      5-min Rain = 0
KST3 170540Z 36012KT 10/M01 A3003 RMK A01 T01001010  RH  046%=      5-min Rain = 0
KST3 170541Z 36012KT 10/M01 A3003 RMK A01 T01011011  RH  046%=      5-min Rain = 0
KST3 170542Z 36012KT 10/M01 A3003 RMK A01 T01011012  RH  045%=      5-min Rain = 0
KST3 170543Z 35013KT 10/M01 A3003 RMK A01 T01011012  RH  045%=      5-min Rain = 0
KST3 170544Z 35014KT 10/M01 A3003 RMK A01 T01011013  RH  045%=      5-min Rain = 0
KST3 170545Z 35013KT 10/M01 A3003 RMK A01 T01011013  RH  045%=      5-min Rain = 0
KST3 170546Z 36014KT 10/M01 A3003 RMK A01 T01021014  RH  045%=      5-min Rain = 0
KST3 170547Z 36015KT 10/M01 A3003 RMK A01 T01021014  RH  045%=      5-min Rain = 0
KST3 170548Z 36015KT 10/M01 A3003 RMK A01 T01021014  RH  044%=      5-min Rain = 0
KST3 170549Z 35015KT 10/M01 A3003 RMK A01 T01021014  RH  044%=      5-min Rain = 0
KST3 170550Z 36015KT 10/M02 A3003 RMK A01 T01021015  RH  044%=      5-min Rain = 0
KST3 170551Z 36015KT 10/M02 A3003 RMK A01 T01021015  RH  044%=      5-min Rain = 0
KST3 170552Z 36015KT 10/M02 A3003 RMK A01 T01021015  RH  044%=      5-min Rain = 0
KST3 170553Z 36015KT 10/M02 A3003 RMK A01 T01021015  RH  044%=      5-min Rain = 0
KST3 170554Z 35016KT 10/M02 A3004 RMK A01 T01021015  RH  044%=      5-min Rain = 0
KST3 170555Z 35016KT 10/M02 A3004 RMK A01 T01011015  RH  044%=      5-min Rain = 0
KST3 170556Z 35014KT 10/M02 A3004 RMK A01 T01011015  RH  044%=      5-min Rain = 0
KST3 170557Z 35017KT 10/M01 A3004 RMK A01 T01011014  RH  045%=      5-min Rain = 0
KST3 170558Z 36016KT 10/M02 A3004 RMK A01 T01011015  RH  045%=      5-min Rain = 0
KST3 170559Z 35015G20KT 10/M02 A3004 RMK A01 T01001015  RH  045%=      5-min Rain = 0

Page generated in 0.0792 seconds.